Time,TemperatureF,DewpointF,PressureIn,WindDirection,WindDirectionDegrees,WindSpeedMPH,WindSpeedGustMPH,Humidity,HourlyPrecipIn,Conditions,Clouds,dailyrainin,SoftwareType,DateUTC
2013-03-11 00:00:00,69.1,62.3,30.07,East,98,0.0,1.0,79,0.00,,,0.00,Wunderground v.1.15,2013-03-11 04:00:00,
2013-03-11 00:02:00,69.2,62.4,30.07,East,99,0.0,1.0,79,0.00,,,0.00,Wunderground v.1.15,2013-03-11 04:02:00,
2013-03-11 00:03:00,69.3,62.5,30.07,East,101,0.0,1.0,79,0.00,,,0.00,Wunderground v.1.15,2013-03-11 04:03:00,
2013-03-11 00:08:00,69.5,62.3,30.07,East,98,0.0,4.0,78,0.00,,,0.00,Wunderground v.1.15,2013-03-11 04:08:00,
2013-03-11 00:09:00,69.6,62.4,30.06,East,101,0.0,1.0,78,0.00,,,0.00,Wunderground v.1.15,2013-03-11 04:09:00,
2013-03-11 00:10:00,69.7,62.5,30.06,East,101,0.0,1.0,78,0.00,,,0.00,Wunderground v.1.15,2013-03-11 04:10:00,
2013-03-11 00:11:00,69.7,62.5,30.06,East,101,0.0,1.0,78,0.00,,,0.00,Wunderground v.1.15,2013-03-11 04:11:00,
2013-03-11 00:17:00,69.8,62.6,30.06,East,99,0.0,3.0,78,0.00,,,0.00,Wunderground v.1.15,2013-03-11 04:17:00,
2013-03-11 00:18:00,69.9,62.7,30.06,East,82,5.0,5.0,78,0.00,,,0.00,Wunderground v.1.15,2013-03-11 04:18:00,
2013-03-11 00:22:00,69.9,62.7,30.06,East,90,2.0,2.0,78,0.00,,,0.00,Wunderground v.1.15,2013-03-11 04:22:00,
2013-03-11 00:24:00,70.0,62.8,30.06,East,98,2.0,4.0,78,0.00,,,0.00,Wunderground v.1.15,2013-03-11 04:24:00,
2013-03-11 00:25:00,70.0,62.8,30.06,ESE,104,1.0,4.0,78,0.00,,,0.00,Wunderground v.1.15,2013-03-11 04:25:00,
2013-03-11 00:28:00,70.0,62.8,30.06,East,98,4.0,4.0,78,0.00,,,0.00,Wunderground v.1.15,2013-03-11 04:28:00,
2013-03-11 00:29:00,70.0,62.8,30.06,East,98,1.0,2.0,78,0.00,,,0.00,Wunderground v.1.15,2013-03-11 04:29:00,
2013-03-11 00:30:00,70.0,62.5,30.06,ESE,107,0.0,2.0,77,0.00,,,0.00,Wunderground v.1.15,2013-03-11 04:30:00,
2013-03-11 00:34:00,70.0,62.8,30.06,East,98,0.0,7.0,78,0.00,,,0.00,Wunderground v.1.15,2013-03-11 04:34:00,
2013-03-11 00:36:00,70.0,62.5,30.05,ESE,109,6.0,7.0,77,0.00,,,0.00,Wunderground v.1.15,2013-03-11 04:36:00,
2013-03-11 00:39:00,70.0,62.8,30.05,East,101,1.0,2.0,78,0.00,,,0.00,Wunderground v.1.15,2013-03-11 04:39:00,
2013-03-11 00:42:00,70.0,62.5,30.05,ESE,111,4.0,4.0,77,0.00,,,0.00,Wunderground v.1.15,2013-03-11 04:42:00,
2013-03-11 00:43:00,70.0,62.5,30.05,East,101,6.0,6.0,77,0.00,,,0.00,Wunderground v.1.15,2013-03-11 04:43:00,
2013-03-11 00:44:00,70.0,62.5,30.05,East,99,0.0,6.0,77,0.00,,,0.00,Wunderground v.1.15,2013-03-11 04:44:00,
2013-03-11 00:47:00,70.1,62.6,30.05,ESE,121,0.0,6.0,77,0.00,,,0.00,Wunderground v.1.15,2013-03-11 04:47:00,
2013-03-11 00:48:00,70.1,62.6,30.05,ESE,107,0.0,6.0,77,0.00,,,0.00,Wunderground v.1.15,2013-03-11 04:48:00,
2013-03-11 00:54:00,70.1,62.6,30.05,East,98,1.0,5.0,77,0.00,,,0.00,Wunderground v.1.15,2013-03-11 04:54:00,
2013-03-11 00:55:00,70.1,62.6,30.05,ESE,108,5.0,5.0,77,0.00,,,0.00,Wunderground v.1.15,2013-03-11 04:55:00,
2013-03-11 00:56:00,70.1,62.6,30.05,ESE,113,0.0,5.0,77,0.00,,,0.00,Wunderground v.1.15,2013-03-11 04:56:00,
2013-03-11 01:01:00,70.2,62.6,30.05,ESE,105,5.0,5.0,77,0.00,,,0.00,Wunderground v.1.15,2013-03-11 05:01:00,
2013-03-11 01:03:00,70.2,62.6,30.05,ESE,113,0.0,6.0,77,0.00,,,0.00,Wunderground v.1.15,2013-03-11 05:03:00,
2013-03-11 01:06:00,70.3,62.7,30.05,East,98,4.0,6.0,77,0.00,,,0.00,Wunderground v.1.15,2013-03-11 05:06:00,
2013-03-11 01:09:00,70.3,62.7,30.05,East,98,5.0,5.0,77,0.00,,,0.00,Wunderground v.1.15,2013-03-11 05:09:00,
2013-03-11 01:11:00,70.3,62.4,30.05,East,100,6.0,6.0,76,0.00,,,0.00,Wunderground v.1.15,2013-03-11 05:11:00,
2013-03-11 01:15:00,70.4,62.5,30.05,ESE,103,6.0,6.0,76,0.00,,,0.00,Wunderground v.1.15,2013-03-11 05:15:00,
2013-03-11 01:17:00,70.4,62.8,30.05,ESE,117,0.0,6.0,77,0.00,,,0.00,Wunderground v.1.15,2013-03-11 05:17:00,
2013-03-11 01:18:00,70.4,62.8,30.05,East,92,5.0,6.0,77,0.00,,,0.00,Wunderground v.1.15,2013-03-11 05:18:00,
2013-03-11 01:22:00,70.3,62.7,30.05,SE,127,2.0,6.0,77,0.00,,,0.00,Wunderground v.1.15,2013-03-11 05:22:00,
2013-03-11 01:24:00,70.3,62.4,30.05,ESE,105,4.0,6.0,76,0.00,,,0.00,Wunderground v.1.15,2013-03-11 05:24:00,
2013-03-11 01:27:00,70.2,62.3,30.05,ESE,116,3.0,6.0,76,0.00,,,0.00,Wunderground v.1.15,2013-03-11 05:27:00,
2013-03-11 01:28:00,70.2,62.3,30.05,SE,138,4.0,6.0,76,0.00,,,0.00,Wunderground v.1.15,2013-03-11 05:28:00,
2013-03-11 01:29:00,70.2,62.3,30.05,ESE,103,5.0,5.0,76,0.00,,,0.00,Wunderground v.1.15,2013-03-11 05:29:00,
2013-03-11 01:32:00,70.2,62.3,30.05,ESE,113,5.0,5.0,76,0.00,,,0.00,Wunderground v.1.15,2013-03-11 05:32:00,
2013-03-11 01:34:00,70.2,62.3,30.05,East,100,6.0,6.0,76,0.00,,,0.00,Wunderground v.1.15,2013-03-11 05:34:00,
2013-03-11 01:36:00,70.2,62.6,30.05,ESE,115,4.0,6.0,77,0.00,,,0.00,Wunderground v.1.15,2013-03-11 05:36:00,
2013-03-11 01:38:00,70.1,62.2,30.04,East,82,8.0,8.0,76,0.00,,,0.00,Wunderground v.1.15,2013-03-11 05:38:00,
2013-03-11 01:41:00,70.1,62.2,30.04,SE,124,6.0,6.0,76,0.00,,,0.00,Wunderground v.1.15,2013-03-11 05:41:00,
2013-03-11 01:43:00,70.0,62.1,30.04,ESE,105,0.0,6.0,76,0.00,,,0.00,Wunderground v.1.15,2013-03-11 05:43:00,
2013-03-11 01:44:00,70.0,62.1,30.04,East,101,6.0,6.0,76,0.00,,,0.00,Wunderground v.1.15,2013-03-11 05:44:00,
2013-03-11 01:46:00,70.0,62.1,30.04,East,101,0.0,6.0,76,0.00,,,0.00,Wunderground v.1.15,2013-03-11 05:46:00,
2013-03-11 01:50:00,69.9,62.4,30.04,ESE,121,0.0,4.0,77,0.00,,,0.00,Wunderground v.1.15,2013-03-11 05:50:00,
2013-03-11 01:52:00,69.9,62.4,30.04,ESE,106,2.0,5.0,77,0.00,,,0.00,Wunderground v.1.15,2013-03-11 05:52:00,
2013-03-11 01:55:00,69.9,62.4,30.04,ESE,110,4.0,5.0,77,0.00,,,0.00,Wunderground v.1.15,2013-03-11 05:55:00,
2013-03-11 01:57:00,69.9,62.4,30.03,East,100,4.0,6.0,77,0.00,,,0.00,Wunderground v.1.15,2013-03-11 05:57:00,
2013-03-11 02:00:00,69.9,62.4,30.03,SE,132,8.0,8.0,77,0.00,,,0.00,Wunderground v.1.15,2013-03-11 06:00:00,
2013-03-11 02:01:00,69.9,62.4,30.03,ESE,123,0.0,8.0,77,0.00,,,0.00,Wunderground v.1.15,2013-03-11 06:01:00,
2013-03-11 02:02:00,69.9,62.4,30.03,ESE,116,6.0,8.0,77,0.00,,,0.00,Wunderground v.1.15,2013-03-11 06:02:00,
2013-03-11 02:05:00,69.9,62.4,30.03,East,99,0.0,8.0,77,0.00,,,0.00,Wunderground v.1.15,2013-03-11 06:05:00,
2013-03-11 02:06:00,70.0,62.5,30.03,ESE,102,3.0,8.0,77,0.00,,,0.00,Wunderground v.1.15,2013-03-11 06:06:00,
2013-03-11 02:08:00,70.0,62.5,30.03,ESE,103,0.0,8.0,77,0.00,,,0.00,Wunderground v.1.15,2013-03-11 06:08:00,
2013-03-11 02:10:00,70.0,62.5,30.03,ESE,114,4.0,7.0,77,0.00,,,0.00,Wunderground v.1.15,2013-03-11 06:10:00,
2013-03-11 02:11:00,70.0,62.5,30.03,ESE,114,0.0,7.0,77,0.00,,,0.00,Wunderground v.1.15,2013-03-11 06:11:00,
2013-03-11 02:13:00,70.0,62.5,30.03,ESE,111,8.0,8.0,77,0.00,,,0.00,Wunderground v.1.15,2013-03-11 06:13:00,
2013-03-11 02:16:00,70.0,62.5,30.03,East,93,6.0,8.0,77,0.00,,,0.00,Wunderground v.1.15,2013-03-11 06:16:00,
2013-03-11 02:17:00,70.1,62.6,30.03,ESE,123,3.0,8.0,77,0.00,,,0.00,Wunderground v.1.15,2013-03-11 06:17:00,
2013-03-11 02:18:00,70.1,62.6,30.03,ESE,107,5.0,11.0,77,0.00,,,0.00,Wunderground v.1.15,2013-03-11 06:18:00,
2013-03-11 02:21:00,70.1,62.6,30.03,ESE,120,6.0,8.0,77,0.00,,,0.00,Wunderground v.1.15,2013-03-11 06:21:00,
2013-03-11 02:22:00,70.1,62.6,30.03,ESE,102,5.0,8.0,77,0.00,,,0.00,Wunderground v.1.15,2013-03-11 06:22:00,
2013-03-11 02:24:00,70.2,62.6,30.03,ESE,111,2.0,8.0,77,0.00,,,0.00,Wunderground v.1.15,2013-03-11 06:24:00,
2013-03-11 02:26:00,70.2,62.6,30.02,SSE,153,5.0,8.0,77,0.00,,,0.00,Wunderground v.1.15,2013-03-11 06:26:00,
2013-03-11 02:27:00,70.2,62.6,30.02,East,95,4.0,8.0,77,0.00,,,0.00,Wunderground v.1.15,2013-03-11 06:27:00,
2013-03-11 02:28:00,70.2,62.6,30.02,ESE,106,5.0,8.0,77,0.00,,,0.00,Wunderground v.1.15,2013-03-11 06:28:00,
2013-03-11 02:29:00,70.2,62.3,30.02,SE,131,4.0,5.0,76,0.00,,,0.00,Wunderground v.1.15,2013-03-11 06:29:00,
2013-03-11 02:31:00,70.3,62.7,30.02,ESE,107,0.0,6.0,77,0.00,,,0.00,Wunderground v.1.15,2013-03-11 06:31:00,
2013-03-11 02:33:00,70.3,62.4,30.02,ESE,107,6.0,13.0,76,0.00,,,0.00,Wunderground v.1.15,2013-03-11 06:33:00,
2013-03-11 02:35:00,70.3,62.4,30.02,ESE,106,5.0,13.0,76,0.00,,,0.00,Wunderground v.1.15,2013-03-11 06:35:00,
2013-03-11 02:37:00,70.3,62.4,30.02,ESE,105,7.0,13.0,76,0.00,,,0.00,Wunderground v.1.15,2013-03-11 06:37:00,
2013-03-11 02:38:00,70.3,62.4,30.02,ESE,114,7.0,13.0,76,0.00,,,0.00,Wunderground v.1.15,2013-03-11 06:38:00,
2013-03-11 02:40:00,70.3,62.4,30.02,ESE,102,9.0,9.0,76,0.00,,,0.00,Wunderground v.1.15,2013-03-11 06:40:00,
2013-03-11 02:42:00,70.3,62.4,30.02,ESE,116,5.0,10.0,76,0.00,,,0.00,Wunderground v.1.15,2013-03-11 06:42:00,
2013-03-11 02:43:00,70.3,62.4,30.02,ESE,111,4.0,10.0,76,0.00,,,0.00,Wunderground v.1.15,2013-03-11 06:43:00,
2013-03-11 02:44:00,70.3,62.4,30.02,ESE,110,4.0,10.0,76,0.00,,,0.00,Wunderground v.1.15,2013-03-11 06:44:00,
2013-03-11 02:45:00,70.4,62.5,30.02,East,90,6.0,10.0,76,0.00,,,0.00,Wunderground v.1.15,2013-03-11 06:45:00,
2013-03-11 02:48:00,70.4,62.5,30.01,ESE,120,6.0,10.0,76,0.00,,,0.00,Wunderground v.1.15,2013-03-11 06:48:00,
2013-03-11 02:49:00,70.3,62.4,30.01,East,96,8.0,10.0,76,0.00,,,0.00,Wunderground v.1.15,2013-03-11 06:49:00,
2013-03-11 02:50:00,70.3,62.4,30.02,East,98,5.0,6.0,76,0.00,,,0.00,Wunderground v.1.15,2013-03-11 06:50:00,
2013-03-11 02:51:00,70.3,62.4,30.02,ESE,102,6.0,7.0,76,0.00,,,0.00,Wunderground v.1.15,2013-03-11 06:51:00,
2013-03-11 02:55:00,70.3,62.4,30.01,East,101,4.0,7.0,76,0.00,,,0.00,Wunderground v.1.15,2013-03-11 06:55:00,
2013-03-11 02:56:00,70.3,62.4,30.01,ESE,104,5.0,7.0,76,0.00,,,0.00,Wunderground v.1.15,2013-03-11 06:56:00,
2013-03-11 03:01:00,70.2,62.3,30.01,ESE,113,2.0,5.0,76,0.00,,,0.00,Wunderground v.1.15,2013-03-11 07:01:00,
2013-03-11 03:04:00,70.1,62.2,30.01,ESE,108,0.0,7.0,76,0.00,,,0.00,Wunderground v.1.15,2013-03-11 07:04:00,
2013-03-11 03:06:00,70.1,62.2,30.01,ESE,121,0.0,7.0,76,0.00,,,0.00,Wunderground v.1.15,2013-03-11 07:06:00,
2013-03-11 03:07:00,70.1,62.2,30.01,SSE,153,7.0,7.0,76,0.00,,,0.00,Wunderground v.1.15,2013-03-11 07:07:00,
2013-03-11 03:09:00,70.1,62.2,30.01,SE,134,0.0,7.0,76,0.00,,,0.00,Wunderground v.1.15,2013-03-11 07:09:00,
2013-03-11 03:11:00,70.1,62.2,30.01,ESE,122,5.0,5.0,76,0.00,,,0.00,Wunderground v.1.15,2013-03-11 07:11:00,
2013-03-11 03:12:00,70.1,62.2,30.01,SE,126,3.0,7.0,76,0.00,,,0.00,Wunderground v.1.15,2013-03-11 07:12:00,
2013-03-11 03:14:00,70.0,62.1,30.01,SE,124,7.0,7.0,76,0.00,,,0.00,Wunderground v.1.15,2013-03-11 07:14:00,
2013-03-11 03:16:00,70.0,62.1,30.01,East,101,3.0,7.0,76,0.00,,,0.00,Wunderground v.1.15,2013-03-11 07:16:00,
2013-03-11 03:18:00,70.1,62.2,30.01,ESE,103,1.0,7.0,76,0.00,,,0.00,Wunderground v.1.15,2013-03-11 07:18:00,
2013-03-11 03:19:00,70.1,62.2,30.01,East,91,6.0,7.0,76,0.00,,,0.00,Wunderground v.1.15,2013-03-11 07:19:00,
2013-03-11 03:22:00,70.1,62.2,30.00,ESE,115,5.0,6.0,76,0.00,,,0.00,Wunderground v.1.15,2013-03-11 07:22:00,
2013-03-11 03:23:00,70.1,62.2,30.01,ESE,121,6.0,7.0,76,0.00,,,0.00,Wunderground v.1.15,2013-03-11 07:23:00,
2013-03-11 03:24:00,70.1,62.2,30.01,SE,127,1.0,7.0,76,0.00,,,0.00,Wunderground v.1.15,2013-03-11 07:24:00,
2013-03-11 03:25:00,70.1,62.2,30.01,ESE,112,6.0,7.0,76,0.00,,,0.00,Wunderground v.1.15,2013-03-11 07:25:00,
2013-03-11 03:27:00,70.1,62.2,30.01,East,98,5.0,7.0,76,0.00,,,0.00,Wunderground v.1.15,2013-03-11 07:27:00,
2013-03-11 03:29:00,70.1,62.2,30.00,East,101,10.0,10.0,76,0.00,,,0.00,Wunderground v.1.15,2013-03-11 07:29:00,
2013-03-11 03:30:00,70.1,62.2,30.00,ESE,123,5.0,6.0,76,0.00,,,0.00,Wunderground v.1.15,2013-03-11 07:30:00,
2013-03-11 03:32:00,70.1,62.2,30.00,SE,126,4.0,6.0,76,0.00,,,0.00,Wunderground v.1.15,2013-03-11 07:32:00,
2013-03-11 03:34:00,70.1,62.2,30.00,ESE,105,4.0,6.0,76,0.00,,,0.00,Wunderground v.1.15,2013-03-11 07:34:00,
2013-03-11 03:35:00,70.1,62.2,30.00,ESE,117,6.0,8.0,76,0.00,,,0.00,Wunderground v.1.15,2013-03-11 07:35:00,
2013-03-11 03:37:00,70.1,62.2,30.00,ESE,117,6.0,8.0,76,0.00,,,0.00,Wunderground v.1.15,2013-03-11 07:37:00,
2013-03-11 03:39:00,70.1,61.8,30.00,SE,142,6.0,8.0,75,0.00,,,0.00,Wunderground v.1.15,2013-03-11 07:39:00,
2013-03-11 03:40:00,70.1,62.2,30.00,ESE,115,8.0,11.0,76,0.00,,,0.00,Wunderground v.1.15,2013-03-11 07:40:00,
2013-03-11 03:43:00,70.1,61.8,30.00,SE,134,0.0,11.0,75,0.00,,,0.00,Wunderground v.1.15,2013-03-11 07:43:00,
2013-03-11 03:45:00,70.1,61.8,30.00,East,101,0.0,11.0,75,0.00,,,0.00,Wunderground v.1.15,2013-03-11 07:45:00,
2013-03-11 03:46:00,70.1,62.2,30.00,SSE,155,8.0,11.0,76,0.00,,,0.00,Wunderground v.1.15,2013-03-11 07:46:00,
2013-03-11 03:48:00,70.1,61.8,30.00,SE,144,7.0,11.0,75,0.00,,,0.00,Wunderground v.1.15,2013-03-11 07:48:00,
2013-03-11 03:50:00,70.1,61.8,30.00,ESE,102,6.0,6.0,75,0.00,,,0.00,Wunderground v.1.15,2013-03-11 07:50:00,
2013-03-11 03:51:00,70.1,61.8,30.00,ESE,112,0.0,6.0,75,0.00,,,0.00,Wunderground v.1.15,2013-03-11 07:51:00,
2013-03-11 03:52:00,70.1,61.8,30.00,SE,138,5.0,8.0,75,0.00,,,0.00,Wunderground v.1.15,2013-03-11 07:52:00,
2013-03-11 03:53:00,70.1,61.8,30.00,ESE,107,7.0,8.0,75,0.00,,,0.00,Wunderground v.1.15,2013-03-11 07:53:00,
2013-03-11 03:56:00,70.0,62.1,30.00,ESE,102,6.0,8.0,76,0.00,,,0.00,Wunderground v.1.15,2013-03-11 07:56:00,
2013-03-11 03:58:00,70.0,62.1,30.00,SE,126,5.0,8.0,76,0.00,,,0.00,Wunderground v.1.15,2013-03-11 07:58:00,
2013-03-11 03:59:00,70.0,62.1,30.00,SE,129,5.0,8.0,76,0.00,,,0.00,Wunderground v.1.15,2013-03-11 07:59:00,
2013-03-11 04:02:00,69.9,62.0,29.99,ESE,120,5.0,7.0,76,0.00,,,0.00,Wunderground v.1.15,2013-03-11 08:02:00,
2013-03-11 04:03:00,69.9,62.0,29.99,ESE,109,6.0,7.0,76,0.00,,,0.00,Wunderground v.1.15,2013-03-11 08:03:00,
2013-03-11 04:05:00,69.9,62.0,29.99,SE,128,3.0,7.0,76,0.00,,,0.00,Wunderground v.1.15,2013-03-11 08:05:00,
2013-03-11 04:07:00,69.8,61.9,29.99,SE,134,4.0,8.0,76,0.00,,,0.00,Wunderground v.1.15,2013-03-11 08:07:00,
2013-03-11 04:08:00,69.8,61.9,29.99,ESE,114,1.0,8.0,76,0.00,,,0.00,Wunderground v.1.15,2013-03-11 08:08:00,
2013-03-11 04:10:00,69.7,61.8,29.99,ESE,116,6.0,9.0,76,0.00,,,0.00,Wunderground v.1.15,2013-03-11 08:10:00,
2013-03-11 04:12:00,69.7,61.8,29.99,SE,138,6.0,9.0,76,0.00,,,0.00,Wunderground v.1.15,2013-03-11 08:12:00,
2013-03-11 04:13:00,69.7,61.8,29.99,SE,140,0.0,9.0,76,0.00,,,0.00,Wunderground v.1.15,2013-03-11 08:13:00,
2013-03-11 04:14:00,69.7,61.8,29.99,SE,126,5.0,9.0,76,0.00,,,0.00,Wunderground v.1.15,2013-03-11 08:14:00,
2013-03-11 04:15:00,69.7,61.8,29.99,SE,124,4.0,9.0,76,0.00,,,0.00,Wunderground v.1.15,2013-03-11 08:15:00,
2013-03-11 04:17:00,69.7,61.8,29.99,ESE,120,2.0,9.0,76,0.00,,,0.00,Wunderground v.1.15,2013-03-11 08:17:00,
2013-03-11 04:19:00,69.6,61.7,29.99,ESE,120,1.0,9.0,76,0.00,,,0.00,Wunderground v.1.15,2013-03-11 08:19:00,
2013-03-11 04:20:00,69.6,61.7,29.99,SE,137,5.0,6.0,76,0.00,,,0.00,Wunderground v.1.15,2013-03-11 08:20:00,
2013-03-11 04:22:00,69.6,61.7,29.99,SE,136,3.0,9.0,76,0.00,,,0.00,Wunderground v.1.15,2013-03-11 08:22:00,
2013-03-11 04:24:00,69.6,62.1,29.99,SE,134,0.0,9.0,77,0.00,,,0.00,Wunderground v.1.15,2013-03-11 08:24:00,
2013-03-11 04:25:00,69.5,62.0,29.99,SE,134,0.0,9.0,77,0.00,,,0.00,Wunderground v.1.15,2013-03-11 08:25:00,
2013-03-11 04:26:00,69.5,61.6,29.99,SE,136,5.0,9.0,76,0.00,,,0.00,Wunderground v.1.15,2013-03-11 08:26:00,
2013-03-11 04:27:00,69.5,61.6,29.99,SE,136,4.0,9.0,76,0.00,,,0.00,Wunderground v.1.15,2013-03-11 08:27:00,
2013-03-11 04:30:00,69.4,61.5,29.99,SE,130,0.0,5.0,76,0.00,,,0.00,Wunderground v.1.15,2013-03-11 08:30:00,
2013-03-11 04:32:00,69.4,61.9,29.99,SE,130,0.0,5.0,77,0.00,,,0.00,Wunderground v.1.15,2013-03-11 08:32:00,
2013-03-11 04:33:00,69.3,61.8,29.98,SE,140,0.0,6.0,77,0.00,,,0.00,Wunderground v.1.15,2013-03-11 08:33:00,
2013-03-11 04:35:00,69.2,61.7,29.99,SE,138,0.0,6.0,77,0.00,,,0.00,Wunderground v.1.15,2013-03-11 08:35:00,
2013-03-11 04:37:00,69.2,61.7,29.99,SE,139,1.0,6.0,77,0.00,,,0.00,Wunderground v.1.15,2013-03-11 08:37:00,
2013-03-11 04:38:00,69.2,61.7,29.99,SE,138,0.0,6.0,77,0.00,,,0.00,Wunderground v.1.15,2013-03-11 08:38:00,
2013-03-11 04:40:00,69.1,61.6,29.99,SE,127,3.0,3.0,77,0.00,,,0.00,Wunderground v.1.15,2013-03-11 08:40:00,
2013-03-11 04:42:00,69.0,61.5,29.99,SE,128,0.0,6.0,77,0.00,,,0.00,Wunderground v.1.15,2013-03-11 08:42:00,
2013-03-11 04:43:00,69.0,61.5,29.99,SE,128,0.0,6.0,77,0.00,,,0.00,Wunderground v.1.15,2013-03-11 08:43:00,
2013-03-11 04:46:00,69.0,61.5,29.99,ESE,114,0.0,6.0,77,0.00,,,0.00,Wunderground v.1.15,2013-03-11 08:46:00,
2013-03-11 04:47:00,69.0,61.5,29.99,ESE,114,1.0,6.0,77,0.00,,,0.00,Wunderground v.1.15,2013-03-11 08:47:00,
2013-03-11 04:48:00,68.9,61.4,29.99,ESE,113,1.0,6.0,77,0.00,,,0.00,Wunderground v.1.15,2013-03-11 08:48:00,
2013-03-11 04:51:00,68.8,61.3,29.99,ESE,122,0.0,1.0,77,0.00,,,0.00,Wunderground v.1.15,2013-03-11 08:51:00,
2013-03-11 04:52:00,68.8,61.7,29.99,ESE,122,0.0,1.0,78,0.00,,,0.00,Wunderground v.1.15,2013-03-11 08:52:00,
2013-03-11 04:53:00,68.7,61.6,29.99,ESE,122,2.0,4.0,78,0.00,,,0.00,Wunderground v.1.15,2013-03-11 08:53:00,
2013-03-11 04:54:00,68.7,61.6,29.99,ESE,122,1.0,4.0,78,0.00,,,0.00,Wunderground v.1.15,2013-03-11 08:54:00,
2013-03-11 04:57:00,68.6,61.5,29.99,ESE,121,0.0,4.0,78,0.00,,,0.00,Wunderground v.1.15,2013-03-11 08:57:00,
2013-03-11 04:59:00,68.5,61.4,29.99,ESE,121,0.0,4.0,78,0.00,,,0.00,Wunderground v.1.15,2013-03-11 08:59:00,
2013-03-11 05:02:00,68.4,61.6,29.99,ESE,121,0.0,3.0,79,0.00,,,0.00,Wunderground v.1.15,2013-03-11 09:02:00,
2013-03-11 05:04:00,68.3,61.5,29.99,ESE,122,0.0,3.0,79,0.00,,,0.00,Wunderground v.1.15,2013-03-11 09:04:00,
2013-03-11 05:08:00,68.1,61.3,29.98,ESE,121,0.0,3.0,79,0.00,,,0.00,Wunderground v.1.15,2013-03-11 09:08:00,
2013-03-11 05:09:00,68.2,61.4,29.99,ESE,121,0.0,3.0,79,0.00,,,0.00,Wunderground v.1.15,2013-03-11 09:09:00,
2013-03-11 05:10:00,68.1,61.3,29.99,ESE,121,0.0,0.0,79,0.00,,,0.00,Wunderground v.1.15,2013-03-11 09:10:00,
2013-03-11 05:13:00,67.8,61.0,29.98,ESE,121,0.0,0.0,79,0.00,,,0.00,Wunderground v.1.15,2013-03-11 09:13:00,
2013-03-11 05:14:00,67.7,61.3,29.98,ESE,121,0.0,0.0,80,0.00,,,0.00,Wunderground v.1.15,2013-03-11 09:14:00,
2013-03-11 05:15:00,67.5,60.8,29.98,ESE,121,0.0,0.0,79,0.00,,,0.00,Wunderground v.1.15,2013-03-11 09:15:00,
2013-03-11 05:16:00,67.5,60.8,29.98,ESE,121,0.0,0.0,79,0.00,,,0.00,Wunderground v.1.15,2013-03-11 09:16:00,
2013-03-11 05:19:00,67.2,60.8,29.98,ESE,121,0.0,0.0,80,0.00,,,0.00,Wunderground v.1.15,2013-03-11 09:19:00,
2013-03-11 05:20:00,67.2,60.8,29.98,ESE,121,0.0,0.0,80,0.00,,,0.00,Wunderground v.1.15,2013-03-11 09:20:00,
2013-03-11 05:22:00,67.1,61.1,29.98,ESE,121,0.0,0.0,81,0.00,,,0.00,Wunderground v.1.15,2013-03-11 09:22:00,
2013-03-11 05:24:00,67.0,61.0,29.98,ESE,121,0.0,0.0,81,0.00,,,0.00,Wunderground v.1.15,2013-03-11 09:24:00,
2013-03-11 05:25:00,66.9,60.9,29.98,ESE,121,0.0,0.0,81,0.00,,,0.00,Wunderground v.1.15,2013-03-11 09:25:00,
2013-03-11 05:26:00,66.8,60.8,29.98,ESE,121,0.0,0.0,81,0.00,,,0.00,Wunderground v.1.15,2013-03-11 09:26:00,
2013-03-11 05:27:00,66.8,60.8,29.98,ESE,121,0.0,0.0,81,0.00,,,0.00,Wunderground v.1.15,2013-03-11 09:27:00,
2013-03-11 05:29:00,66.6,60.6,29.98,ESE,121,0.0,0.0,81,0.00,,,0.00,Wunderground v.1.15,2013-03-11 09:29:00,
2013-03-11 05:30:00,66.5,60.5,29.98,ESE,121,0.0,0.0,81,0.00,,,0.00,Wunderground v.1.15,2013-03-11 09:30:00,
2013-03-11 05:32:00,66.4,60.4,29.98,ESE,121,0.0,0.0,81,0.00,,,0.00,Wunderground v.1.15,2013-03-11 09:32:00,
2013-03-11 05:35:00,66.0,60.0,29.98,ESE,121,0.0,0.0,81,0.00,,,0.00,Wunderground v.1.15,2013-03-11 09:35:00,
2013-03-11 05:37:00,65.8,59.8,29.98,ESE,121,0.0,0.0,81,0.00,,,0.00,Wunderground v.1.15,2013-03-11 09:37:00,
2013-03-11 05:38:00,65.7,60.1,29.98,ESE,121,0.0,0.0,82,0.00,,,0.00,Wunderground v.1.15,2013-03-11 09:38:00,
2013-03-11 05:40:00,65.5,60.2,29.98,ESE,121,0.0,0.0,83,0.00,,,0.00,Wunderground v.1.15,2013-03-11 09:40:00,
2013-03-11 05:43:00,65.4,60.4,29.98,ESE,121,0.0,2.0,84,0.00,,,0.00,Wunderground v.1.15,2013-03-11 09:43:00,
2013-03-11 05:45:00,65.3,60.3,29.98,ESE,121,0.0,2.0,84,0.00,,,0.00,Wunderground v.1.15,2013-03-11 09:45:00,
2013-03-11 05:48:00,65.4,60.4,29.98,ESE,121,0.0,2.0,84,0.00,,,0.00,Wunderground v.1.15,2013-03-11 09:48:00,
2013-03-11 05:49:00,65.4,60.4,29.98,ESE,121,0.0,2.0,84,0.00,,,0.00,Wunderground v.1.15,2013-03-11 09:49:00,
2013-03-11 05:50:00,65.4,60.4,29.98,ESE,121,0.0,0.0,84,0.00,,,0.00,Wunderground v.1.15,2013-03-11 09:50:00,
2013-03-11 05:53:00,65.4,60.4,29.98,ESE,121,0.0,0.0,84,0.00,,,0.00,Wunderground v.1.15,2013-03-11 09:53:00,
2013-03-11 05:54:00,65.4,60.4,29.98,ESE,121,0.0,0.0,84,0.00,,,0.00,Wunderground v.1.15,2013-03-11 09:54:00,
2013-03-11 05:55:00,65.4,60.4,29.98,ESE,121,0.0,0.0,84,0.00,,,0.00,Wunderground v.1.15,2013-03-11 09:55:00,
2013-03-11 05:57:00,65.5,60.5,29.98,ESE,121,0.0,0.0,84,0.00,,,0.00,Wunderground v.1.15,2013-03-11 09:57:00,
2013-03-11 05:58:00,65.5,60.5,29.98,ESE,121,0.0,0.0,84,0.00,,,0.00,Wunderground v.1.15,2013-03-11 09:58:00,
2013-03-11 05:59:00,65.4,60.4,29.98,ESE,121,0.0,0.0,84,0.00,,,0.00,Wunderground v.1.15,2013-03-11 09:59:00,
2013-03-11 06:00:00,65.4,60.4,29.98,ESE,121,0.0,0.0,84,0.00,,,0.00,Wunderground v.1.15,2013-03-11 10:00:00,
2013-03-11 06:03:00,65.4,60.4,29.98,ESE,121,0.0,0.0,84,0.00,,,0.00,Wunderground v.1.15,2013-03-11 10:03:00,
2013-03-11 06:05:00,65.3,60.7,29.98,ESE,121,0.0,0.0,85,0.00,,,0.00,Wunderground v.1.15,2013-03-11 10:05:00,
2013-03-11 06:08:00,65.1,60.1,29.98,ESE,121,0.0,0.0,84,0.00,,,0.00,Wunderground v.1.15,2013-03-11 10:08:00,
2013-03-11 06:09:00,65.0,60.0,29.98,ESE,121,0.0,0.0,84,0.00,,,0.00,Wunderground v.1.15,2013-03-11 10:09:00,
2013-03-11 06:10:00,64.9,59.9,29.98,ESE,121,0.0,0.0,84,0.00,,,0.00,Wunderground v.1.15,2013-03-11 10:10:00,
2013-03-11 06:11:00,64.9,59.9,29.98,ESE,121,0.0,0.0,84,0.00,,,0.00,Wunderground v.1.15,2013-03-11 10:11:00,
2013-03-11 06:14:00,64.8,60.2,29.98,ESE,121,0.0,0.0,85,0.00,,,0.00,Wunderground v.1.15,2013-03-11 10:14:00,
2013-03-11 06:15:00,64.7,60.1,29.98,ESE,121,0.0,0.0,85,0.00,,,0.00,Wunderground v.1.15,2013-03-11 10:15:00,
2013-03-11 06:16:00,64.7,60.1,29.98,ESE,121,0.0,0.0,85,0.00,,,0.00,Wunderground v.1.15,2013-03-11 10:16:00,
2013-03-11 06:19:00,64.4,59.8,29.98,ESE,121,0.0,0.0,85,0.00,,,0.00,Wunderground v.1.15,2013-03-11 10:19:00,
2013-03-11 06:20:00,64.4,59.8,29.98,ESE,121,0.0,0.0,85,0.00,,,0.00,Wunderground v.1.15,2013-03-11 10:20:00,
2013-03-11 06:21:00,64.4,59.8,29.99,ESE,121,0.0,0.0,85,0.00,,,0.00,Wunderground v.1.15,2013-03-11 10:21:00,
2013-03-11 06:24:00,64.5,60.2,29.99,ESE,121,0.0,0.0,86,0.00,,,0.00,Wunderground v.1.15,2013-03-11 10:24:00,
2013-03-11 06:25:00,64.5,59.9,29.99,ESE,121,0.0,0.0,85,0.00,,,0.00,Wunderground v.1.15,2013-03-11 10:25:00,
2013-03-11 06:27:00,64.3,59.7,29.99,ESE,121,0.0,0.0,85,0.00,,,0.00,Wunderground v.1.15,2013-03-11 10:27:00,
2013-03-11 06:29:00,64.1,59.5,29.99,ESE,121,0.0,0.0,85,0.00,,,0.00,Wunderground v.1.15,2013-03-11 10:29:00,
2013-03-11 06:32:00,64.0,59.7,29.99,ESE,121,0.0,0.0,86,0.00,,,0.00,Wunderground v.1.15,2013-03-11 10:32:00,
2013-03-11 06:34:00,64.1,59.8,29.99,ESE,121,0.0,0.0,86,0.00,,,0.00,Wunderground v.1.15,2013-03-11 10:34:00,
2013-03-11 06:37:00,64.2,59.9,29.99,ESE,121,0.0,0.0,86,0.00,,,0.00,Wunderground v.1.15,2013-03-11 10:37:00,
2013-03-11 06:38:00,64.3,59.7,29.99,ESE,121,0.0,0.0,85,0.00,,,0.00,Wunderground v.1.15,2013-03-11 10:38:00,
2013-03-11 06:40:00,64.4,59.8,29.99,ESE,121,0.0,0.0,85,0.00,,,0.00,Wunderground v.1.15,2013-03-11 10:40:00,
2013-03-11 06:42:00,64.7,60.1,29.99,ESE,121,0.0,0.0,85,0.00,,,0.00,Wunderground v.1.15,2013-03-11 10:42:00,
2013-03-11 06:43:00,64.7,60.1,29.99,ESE,121,0.0,0.0,85,0.00,,,0.00,Wunderground v.1.15,2013-03-11 10:43:00,
2013-03-11 06:47:00,64.8,60.2,29.99,ESE,121,0.0,1.0,85,0.00,,,0.00,Wunderground v.1.15,2013-03-11 10:47:00,
2013-03-11 06:48:00,64.8,59.9,29.98,ESE,121,0.0,1.0,84,0.00,,,0.00,Wunderground v.1.15,2013-03-11 10:48:00,
2013-03-11 06:49:00,64.9,59.9,29.98,ESE,121,0.0,1.0,84,0.00,,,0.00,Wunderground v.1.15,2013-03-11 10:49:00,
2013-03-11 06:52:00,65.1,60.5,29.99,ESE,121,0.0,0.0,85,0.00,,,0.00,Wunderground v.1.15,2013-03-11 10:52:00,
2013-03-11 06:53:00,65.2,60.2,29.98,ESE,121,0.0,0.0,84,0.00,,,0.00,Wunderground v.1.15,2013-03-11 10:53:00,
2013-03-11 06:54:00,65.2,60.2,29.98,ESE,121,0.0,0.0,84,0.00,,,0.00,Wunderground v.1.15,2013-03-11 10:54:00,
2013-03-11 06:55:00,65.2,60.2,29.98,ESE,121,0.0,0.0,84,0.00,,,0.00,Wunderground v.1.15,2013-03-11 10:55:00,
2013-03-11 06:57:00,65.2,59.9,29.98,ESE,121,0.0,0.0,83,0.00,,,0.00,Wunderground v.1.15,2013-03-11 10:57:00,
2013-03-11 06:59:00,65.3,60.0,29.99,ESE,121,0.0,0.0,83,0.00,,,0.00,Wunderground v.1.15,2013-03-11 10:59:00,
2013-03-11 07:00:00,65.3,60.0,29.98,ESE,121,0.0,0.0,83,0.00,,,0.00,Wunderground v.1.15,2013-03-11 11:00:00,
2013-03-11 07:01:00,65.3,60.0,29.98,ESE,121,0.0,0.0,83,0.00,,,0.00,Wunderground v.1.15,2013-03-11 11:01:00,
2013-03-11 07:02:00,65.3,60.0,29.98,ESE,121,0.0,0.0,83,0.00,,,0.00,Wunderground v.1.15,2013-03-11 11:02:00,
2013-03-11 07:04:00,65.4,60.1,29.98,ESE,121,0.0,0.0,83,0.00,,,0.00,Wunderground v.1.15,2013-03-11 11:04:00,
2013-03-11 07:05:00,65.4,60.1,29.98,ESE,121,0.0,0.0,83,0.00,,,0.00,Wunderground v.1.15,2013-03-11 11:05:00,
2013-03-11 07:06:00,65.4,60.1,29.99,ESE,121,0.0,0.0,83,0.00,,,0.00,Wunderground v.1.15,2013-03-11 11:06:00,
2013-03-11 07:08:00,65.4,60.1,29.99,ESE,121,0.0,0.0,83,0.00,,,0.00,Wunderground v.1.15,2013-03-11 11:08:00,
2013-03-11 07:09:00,65.4,59.8,29.99,ESE,121,0.0,0.0,82,0.00,,,0.00,Wunderground v.1.15,2013-03-11 11:09:00,
2013-03-11 07:10:00,65.4,59.8,29.99,ESE,121,0.0,0.0,82,0.00,,,0.00,Wunderground v.1.15,2013-03-11 11:10:00,
2013-03-11 07:12:00,65.5,59.9,29.99,ESE,121,0.0,0.0,82,0.00,,,0.00,Wunderground v.1.15,2013-03-11 11:12:00,
2013-03-11 07:13:00,65.5,59.9,29.99,ESE,121,0.0,0.0,82,0.00,,,0.00,Wunderground v.1.15,2013-03-11 11:13:00,
2013-03-11 07:15:00,65.5,60.2,29.99,ESE,121,0.0,0.0,83,0.00,,,0.00,Wunderground v.1.15,2013-03-11 11:15:00,
2013-03-11 07:16:00,65.6,60.0,29.99,ESE,121,0.0,0.0,82,0.00,,,0.00,Wunderground v.1.15,2013-03-11 11:16:00,
2013-03-11 07:17:00,65.6,60.3,29.99,ESE,121,0.0,0.0,83,0.00,,,0.00,Wunderground v.1.15,2013-03-11 11:17:00,
2013-03-11 07:18:00,65.7,60.4,29.99,ESE,121,0.0,0.0,83,0.00,,,0.00,Wunderground v.1.15,2013-03-11 11:18:00,
2013-03-11 07:20:00,65.8,60.5,29.99,ESE,121,0.0,0.0,83,0.00,,,0.00,Wunderground v.1.15,2013-03-11 11:20:00,
2013-03-11 07:22:00,65.9,60.6,29.99,ESE,110,0.0,3.0,83,0.00,,,0.00,Wunderground v.1.15,2013-03-11 11:22:00,
2013-03-11 07:23:00,65.9,60.6,29.99,ESE,110,0.0,3.0,83,0.00,,,0.00,Wunderground v.1.15,2013-03-11 11:23:00,
2013-03-11 07:25:00,66.1,60.4,29.99,ESE,110,0.0,3.0,82,0.00,,,0.00,Wunderground v.1.15,2013-03-11 11:25:00,
2013-03-11 07:28:00,66.2,60.5,29.99,ESE,111,0.0,3.0,82,0.00,,,0.00,Wunderground v.1.15,2013-03-11 11:28:00,
2013-03-11 07:29:00,66.2,60.2,29.99,ESE,111,0.0,0.0,81,0.00,,,0.00,Wunderground v.1.15,2013-03-11 11:29:00,
2013-03-11 07:30:00,66.2,60.5,29.99,ESE,111,0.0,0.0,82,0.00,,,0.00,Wunderground v.1.15,2013-03-11 11:30:00,
2013-03-11 07:33:00,66.1,60.1,29.99,ESE,111,0.0,0.0,81,0.00,,,0.00,Wunderground v.1.15,2013-03-11 11:33:00,
2013-03-11 07:34:00,66.1,60.1,29.99,ESE,111,0.0,0.0,81,0.00,,,0.00,Wunderground v.1.15,2013-03-11 11:34:00,
2013-03-11 07:36:00,66.1,60.4,29.99,ESE,111,0.0,0.0,82,0.00,,,0.00,Wunderground v.1.15,2013-03-11 11:36:00,
2013-03-11 07:39:00,66.2,60.5,29.99,ESE,111,0.0,0.0,82,0.00,,,0.00,Wunderground v.1.15,2013-03-11 11:39:00,
2013-03-11 07:40:00,66.2,60.2,29.99,ESE,111,0.0,0.0,81,0.00,,,0.00,Wunderground v.1.15,2013-03-11 11:40:00,
2013-03-11 07:42:00,66.1,60.1,29.99,ESE,111,0.0,0.0,81,0.00,,,0.00,Wunderground v.1.15,2013-03-11 11:42:00,
2013-03-11 07:44:00,66.1,60.1,30.00,ESE,111,0.0,0.0,81,0.00,,,0.00,Wunderground v.1.15,2013-03-11 11:44:00,
2013-03-11 07:45:00,66.1,60.1,30.00,ESE,111,0.0,0.0,81,0.00,,,0.00,Wunderground v.1.15,2013-03-11 11:45:00,
2013-03-11 07:47:00,66.0,60.0,30.00,ESE,111,0.0,0.0,81,0.00,,,0.00,Wunderground v.1.15,2013-03-11 11:47:00,
2013-03-11 07:49:00,66.0,60.3,29.99,ESE,111,0.0,0.0,82,0.00,,,0.00,Wunderground v.1.15,2013-03-11 11:49:00,
2013-03-11 07:50:00,66.0,60.0,30.00,ESE,111,0.0,0.0,81,0.00,,,0.00,Wunderground v.1.15,2013-03-11 11:50:00,
2013-03-11 07:52:00,66.1,60.4,30.00,ESE,111,0.0,0.0,82,0.00,,,0.00,Wunderground v.1.15,2013-03-11 11:52:00,
2013-03-11 07:53:00,66.1,60.4,30.00,ESE,111,0.0,0.0,82,0.00,,,0.00,Wunderground v.1.15,2013-03-11 11:53:00,
2013-03-11 07:54:00,66.1,60.1,30.00,ESE,111,0.0,0.0,81,0.00,,,0.00,Wunderground v.1.15,2013-03-11 11:54:00,
2013-03-11 07:55:00,66.2,60.2,30.00,ESE,111,0.0,2.0,81,0.00,,,0.00,Wunderground v.1.15,2013-03-11 11:55:00,
2013-03-11 07:57:00,66.3,60.6,30.00,ESE,111,0.0,2.0,82,0.00,,,0.00,Wunderground v.1.15,2013-03-11 11:57:00,
2013-03-11 07:58:00,66.4,60.7,30.00,ESE,111,0.0,2.0,82,0.00,,,0.00,Wunderground v.1.15,2013-03-11 11:58:00,
2013-03-11 07:59:00,66.4,60.7,30.00,ESE,111,0.0,0.0,82,0.00,,,0.00,Wunderground v.1.15,2013-03-11 11:59:00,
2013-03-11 08:02:00,66.5,60.5,30.00,ESE,111,0.0,0.0,81,0.00,,,0.00,Wunderground v.1.15,2013-03-11 12:02:00,
2013-03-11 08:03:00,66.6,60.2,30.00,ESE,111,0.0,0.0,80,0.00,,,0.00,Wunderground v.1.15,2013-03-11 12:03:00,
2013-03-11 08:05:00,66.6,60.2,30.00,ESE,111,0.0,0.0,80,0.00,,,0.00,Wunderground v.1.15,2013-03-11 12:05:00,
2013-03-11 08:07:00,66.6,60.2,30.00,ESE,111,0.0,0.0,80,0.00,,,0.00,Wunderground v.1.15,2013-03-11 12:07:00,
2013-03-11 08:08:00,66.6,60.2,30.00,ESE,111,0.0,0.0,80,0.00,,,0.00,Wunderground v.1.15,2013-03-11 12:08:00,
2013-03-11 08:09:00,66.5,60.1,30.00,ESE,111,0.0,0.0,80,0.00,,,0.00,Wunderground v.1.15,2013-03-11 12:09:00,
2013-03-11 08:10:00,66.5,60.1,30.00,ESE,111,0.0,0.0,80,0.00,,,0.00,Wunderground v.1.15,2013-03-11 12:10:00,
2013-03-11 08:13:00,66.5,60.1,30.00,ESE,111,0.0,0.0,80,0.00,,,0.00,Wunderground v.1.15,2013-03-11 12:13:00,
2013-03-11 08:14:00,66.5,60.1,30.00,ESE,111,0.0,0.0,80,0.00,,,0.00,Wunderground v.1.15,2013-03-11 12:14:00,
2013-03-11 08:17:00,66.6,60.2,30.00,ESE,111,0.0,0.0,80,0.00,,,0.00,Wunderground v.1.15,2013-03-11 12:17:00,
2013-03-11 08:18:00,66.7,60.3,30.00,ESE,111,0.0,0.0,80,0.00,,,0.00,Wunderground v.1.15,2013-03-11 12:18:00,
2013-03-11 08:19:00,66.7,60.3,30.00,ESE,111,0.0,0.0,80,0.00,,,0.00,Wunderground v.1.15,2013-03-11 12:19:00,
2013-03-11 08:20:00,66.8,60.4,30.00,ESE,111,0.0,0.0,80,0.00,,,0.00,Wunderground v.1.15,2013-03-11 12:20:00,
2013-03-11 08:22:00,67.0,60.6,30.00,ESE,111,0.0,0.0,80,0.00,,,0.00,Wunderground v.1.15,2013-03-11 12:22:00,
2013-03-11 08:24:00,67.1,60.7,30.00,ESE,111,0.0,0.0,80,0.00,,,0.00,Wunderground v.1.15,2013-03-11 12:24:00,
2013-03-11 08:25:00,67.3,60.9,30.00,ESE,111,0.0,0.0,80,0.00,,,0.00,Wunderground v.1.15,2013-03-11 12:25:00,
2013-03-11 08:27:00,67.5,60.8,30.00,ESE,111,0.0,0.0,79,0.00,,,0.00,Wunderground v.1.15,2013-03-11 12:27:00,
2013-03-11 08:29:00,67.7,61.0,30.00,ESE,111,0.0,0.0,79,0.00,,,0.00,Wunderground v.1.15,2013-03-11 12:29:00,
2013-03-11 08:30:00,67.8,61.0,30.00,ESE,111,0.0,0.0,79,0.00,,,0.00,Wunderground v.1.15,2013-03-11 12:30:00,
2013-03-11 08:32:00,68.0,61.2,30.00,ESE,111,0.0,0.0,79,0.00,,,0.00,Wunderground v.1.15,2013-03-11 12:32:00,
2013-03-11 08:34:00,68.3,61.5,30.01,ESE,111,0.0,0.0,79,0.00,,,0.00,Wunderground v.1.15,2013-03-11 12:34:00,
2013-03-11 08:35:00,68.3,61.5,30.01,ESE,111,0.0,0.0,79,0.00,,,0.00,Wunderground v.1.15,2013-03-11 12:35:00,
2013-03-11 08:37:00,68.5,61.7,30.01,ESE,111,0.0,0.0,79,0.00,,,0.00,Wunderground v.1.15,2013-03-11 12:37:00,
2013-03-11 08:40:00,69.0,61.9,30.01,ESE,111,0.0,0.0,78,0.00,,,0.00,Wunderground v.1.15,2013-03-11 12:40:00,
2013-03-11 08:43:00,69.3,61.8,30.01,ESE,122,2.0,5.0,77,0.00,,,0.00,Wunderground v.1.15,2013-03-11 12:43:00,
2013-03-11 08:44:00,69.4,61.5,30.01,ESE,122,0.0,5.0,76,0.00,,,0.00,Wunderground v.1.15,2013-03-11 12:44:00,
2013-03-11 08:45:00,69.6,62.1,30.01,ESE,119,0.0,5.0,77,0.00,,,0.00,Wunderground v.1.15,2013-03-11 12:45:00,
2013-03-11 08:49:00,69.8,61.9,30.01,SE,130,0.0,5.0,76,0.00,,,0.00,Wunderground v.1.15,2013-03-11 12:49:00,
2013-03-11 08:50:00,70.0,62.1,30.00,SE,137,6.0,7.0,76,0.00,,,0.00,Wunderground v.1.15,2013-03-11 12:50:00,
2013-03-11 08:51:00,70.0,61.7,30.00,ESE,114,0.0,7.0,75,0.00,,,0.00,Wunderground v.1.15,2013-03-11 12:51:00,
2013-03-11 08:54:00,70.2,61.5,30.01,ESE,113,4.0,7.0,74,0.00,,,0.00,Wunderground v.1.15,2013-03-11 12:54:00,
2013-03-11 08:55:00,70.3,61.6,30.01,East,98,5.0,7.0,74,0.00,,,0.00,Wunderground v.1.15,2013-03-11 12:55:00,
2013-03-11 08:57:00,70.4,61.7,30.01,East,101,2.0,7.0,74,0.00,,,0.00,Wunderground v.1.15,2013-03-11 12:57:00,
2013-03-11 08:59:00,70.5,61.8,30.01,ESE,118,4.0,7.0,74,0.00,,,0.00,Wunderground v.1.15,2013-03-11 12:59:00,
2013-03-11 09:00:00,70.5,61.4,30.01,East,101,5.0,5.0,73,0.00,,,0.00,Wunderground v.1.15,2013-03-11 13:00:00,
2013-03-11 09:02:00,70.6,61.9,30.01,SSE,159,0.0,5.0,74,0.00,,,0.00,Wunderground v.1.15,2013-03-11 13:02:00,
2013-03-11 09:03:00,70.7,62.0,30.01,ESE,118,5.0,5.0,74,0.00,,,0.00,Wunderground v.1.15,2013-03-11 13:03:00,
2013-03-11 09:04:00,70.8,62.1,30.01,ESE,118,7.0,7.0,74,0.00,,,0.00,Wunderground v.1.15,2013-03-11 13:04:00,
2013-03-11 09:06:00,70.8,61.7,30.01,SE,135,4.0,7.0,73,0.00,,,0.00,Wunderground v.1.15,2013-03-11 13:06:00,
2013-03-11 09:07:00,70.8,61.3,30.01,SE,133,8.0,8.0,72,0.00,,,0.00,Wunderground v.1.15,2013-03-11 13:07:00,
2013-03-11 09:08:00,70.8,61.7,30.02,East,88,9.0,11.0,73,0.00,,,0.00,Wunderground v.1.15,2013-03-11 13:08:00,
2013-03-11 09:09:00,70.9,61.8,30.02,ESE,105,6.0,11.0,73,0.00,,,0.00,Wunderground v.1.15,2013-03-11 13:09:00,
2013-03-11 09:11:00,71.0,61.9,30.02,East,101,0.0,7.0,73,0.00,,,0.00,Wunderground v.1.15,2013-03-11 13:11:00,
2013-03-11 09:12:00,71.0,61.5,30.02,ESE,121,0.0,7.0,72,0.00,,,0.00,Wunderground v.1.15,2013-03-11 13:12:00,
2013-03-11 09:14:00,71.2,62.1,30.02,East,94,5.0,7.0,73,0.00,,,0.00,Wunderground v.1.15,2013-03-11 13:14:00,
2013-03-11 09:17:00,71.2,61.3,30.01,SE,126,5.0,11.0,71,0.00,,,0.00,Wunderground v.1.15,2013-03-11 13:17:00,
2013-03-11 09:18:00,71.2,61.3,30.01,ESE,105,4.0,11.0,71,0.00,,,0.00,Wunderground v.1.15,2013-03-11 13:18:00,
2013-03-11 09:19:00,71.3,61.4,30.01,SE,137,6.0,11.0,71,0.00,,,0.00,Wunderground v.1.15,2013-03-11 13:19:00,
2013-03-11 09:23:00,71.4,61.9,30.01,ESE,116,5.0,10.0,72,0.00,,,0.00,Wunderground v.1.15,2013-03-11 13:23:00,
2013-03-11 09:24:00,71.4,61.9,30.01,SSE,148,5.0,10.0,72,0.00,,,0.00,Wunderground v.1.15,2013-03-11 13:24:00,
2013-03-11 09:25:00,71.4,61.9,30.02,SE,126,8.0,10.0,72,0.00,,,0.00,Wunderground v.1.15,2013-03-11 13:25:00,
2013-03-11 09:29:00,71.1,61.2,30.02,SE,133,9.0,12.0,71,0.00,,,0.00,Wunderground v.1.15,2013-03-11 13:29:00,
2013-03-11 09:30:00,71.1,61.2,30.02,SE,140,6.0,8.0,71,0.00,,,0.00,Wunderground v.1.15,2013-03-11 13:30:00,
2013-03-11 09:31:00,71.0,61.1,30.01,SE,140,4.0,8.0,71,0.00,,,0.00,Wunderground v.1.15,2013-03-11 13:31:00,
2013-03-11 09:34:00,70.8,61.7,30.02,SE,132,5.0,8.0,73,0.00,,,0.00,Wunderground v.1.15,2013-03-11 13:34:00,
2013-03-11 09:35:00,70.8,61.7,30.02,ESE,107,8.0,10.0,73,0.00,,,0.00,Wunderground v.1.15,2013-03-11 13:35:00,
2013-03-11 09:36:00,70.8,61.7,30.02,ESE,107,5.0,10.0,73,0.00,,,0.00,Wunderground v.1.15,2013-03-11 13:36:00,
2013-03-11 09:39:00,70.8,61.7,30.01,ESE,105,5.0,10.0,73,0.00,,,0.00,Wunderground v.1.15,2013-03-11 13:39:00,
2013-03-11 09:41:00,70.9,61.8,30.02,SE,131,3.0,6.0,73,0.00,,,0.00,Wunderground v.1.15,2013-03-11 13:41:00,
2013-03-11 09:42:00,71.0,61.5,30.02,SE,126,4.0,8.0,72,0.00,,,0.00,Wunderground v.1.15,2013-03-11 13:42:00,
2013-03-11 09:44:00,71.2,62.1,30.02,ESE,107,5.0,8.0,73,0.00,,,0.00,Wunderground v.1.15,2013-03-11 13:44:00,
2013-03-11 09:46:00,71.3,61.8,30.02,SE,125,3.0,8.0,72,0.00,,,0.00,Wunderground v.1.15,2013-03-11 13:46:00,
2013-03-11 09:47:00,71.4,61.9,30.02,East,101,7.0,8.0,72,0.00,,,0.00,Wunderground v.1.15,2013-03-11 13:47:00,
2013-03-11 09:48:00,71.4,61.9,30.02,SE,130,6.0,8.0,72,0.00,,,0.00,Wunderground v.1.15,2013-03-11 13:48:00,
2013-03-11 09:51:00,71.5,61.6,30.03,East,98,5.0,10.0,71,0.00,,,0.00,Wunderground v.1.15,2013-03-11 13:51:00,
2013-03-11 09:52:00,71.5,61.6,30.02,ESE,119,10.0,13.0,71,0.00,,,0.00,Wunderground v.1.15,2013-03-11 13:52:00,
2013-03-11 09:53:00,71.5,61.2,30.02,SSE,148,11.0,14.0,70,0.00,,,0.00,Wunderground v.1.15,2013-03-11 13:53:00,
2013-03-11 09:56:00,71.5,61.2,30.02,ESE,123,8.0,14.0,70,0.00,,,0.00,Wunderground v.1.15,2013-03-11 13:56:00,
2013-03-11 09:58:00,71.6,61.3,30.02,SE,136,9.0,14.0,70,0.00,,,0.00,Wunderground v.1.15,2013-03-11 13:58:00,
2013-03-11 09:59:00,71.6,61.3,30.02,ESE,110,2.0,14.0,70,0.00,,,0.00,Wunderground v.1.15,2013-03-11 13:59:00,
2013-03-11 10:01:00,71.7,61.4,30.02,East,98,7.0,13.0,70,0.00,,,0.00,Wunderground v.1.15,2013-03-11 14:01:00,
2013-03-11 10:03:00,71.7,61.4,30.02,ESE,103,5.0,13.0,70,0.00,,,0.00,Wunderground v.1.15,2013-03-11 14:03:00,
2013-03-11 10:04:00,71.7,61.4,30.03,ESE,111,6.0,13.0,70,0.00,,,0.00,Wunderground v.1.15,2013-03-11 14:04:00,
2013-03-11 10:06:00,71.9,61.6,30.03,South,171,6.0,13.0,70,0.00,,,0.00,Wunderground v.1.15,2013-03-11 14:06:00,
2013-03-11 10:08:00,71.9,61.6,30.03,ESE,121,11.0,13.0,70,0.00,,,0.00,Wunderground v.1.15,2013-03-11 14:08:00,
2013-03-11 10:09:00,71.9,62.0,30.03,ESE,123,6.0,13.0,71,0.00,,,0.00,Wunderground v.1.15,2013-03-11 14:09:00,
2013-03-11 10:10:00,71.8,61.9,30.03,SE,124,7.0,7.0,71,0.00,,,0.00,Wunderground v.1.15,2013-03-11 14:10:00,
2013-03-11 10:12:00,71.8,61.9,30.03,ESE,118,8.0,12.0,71,0.00,,,0.00,Wunderground v.1.15,2013-03-11 14:12:00,
2013-03-11 10:14:00,71.7,61.4,30.03,SE,134,10.0,13.0,70,0.00,,,0.00,Wunderground v.1.15,2013-03-11 14:14:00,
2013-03-11 10:15:00,71.6,61.3,30.03,SSE,148,8.0,13.0,70,0.00,,,0.00,Wunderground v.1.15,2013-03-11 14:15:00,
2013-03-11 10:16:00,71.6,61.3,30.03,SE,142,4.0,13.0,70,0.00,,,0.00,Wunderground v.1.15,2013-03-11 14:16:00,
2013-03-11 10:17:00,71.6,61.3,30.03,SE,132,8.0,13.0,70,0.00,,,0.00,Wunderground v.1.15,2013-03-11 14:17:00,
2013-03-11 10:19:00,71.6,61.3,30.03,ESE,119,4.0,13.0,70,0.00,,,0.00,Wunderground v.1.15,2013-03-11 14:19:00,
2013-03-11 10:20:00,71.6,61.3,30.03,ESE,117,7.0,10.0,70,0.00,,,0.00,Wunderground v.1.15,2013-03-11 14:20:00,
2013-03-11 10:22:00,71.7,61.4,30.03,SE,138,4.0,10.0,70,0.00,,,0.00,Wunderground v.1.15,2013-03-11 14:22:00,
2013-03-11 10:23:00,71.9,62.0,30.03,SE,136,1.0,10.0,71,0.00,,,0.00,Wunderground v.1.15,2013-03-11 14:23:00,
2013-03-11 10:25:00,72.0,61.7,30.03,SE,129,8.0,10.0,70,0.00,,,0.00,Wunderground v.1.15,2013-03-11 14:25:00,
2013-03-11 10:27:00,72.2,61.9,30.03,ESE,121,7.0,11.0,70,0.00,,,0.00,Wunderground v.1.15,2013-03-11 14:27:00,
2013-03-11 10:28:00,72.2,61.9,30.02,East,97,6.0,11.0,70,0.00,,,0.00,Wunderground v.1.15,2013-03-11 14:28:00,
2013-03-11 10:30:00,72.3,62.0,30.02,ESE,109,6.0,7.0,70,0.00,,,0.00,Wunderground v.1.15,2013-03-11 14:30:00,
2013-03-11 10:32:00,72.4,61.7,30.02,East,90,7.0,10.0,69,0.00,,,0.00,Wunderground v.1.15,2013-03-11 14:32:00,
2013-03-11 10:33:00,72.4,61.7,30.02,SE,128,12.0,13.0,69,0.00,,,0.00,Wunderground v.1.15,2013-03-11 14:33:00,
2013-03-11 10:34:00,72.4,61.7,30.02,SSE,153,5.0,13.0,69,0.00,,,0.00,Wunderground v.1.15,2013-03-11 14:34:00,
2013-03-11 10:35:00,72.5,61.7,30.02,SE,139,8.0,13.0,69,0.00,,,0.00,Wunderground v.1.15,2013-03-11 14:35:00,
2013-03-11 10:38:00,72.4,61.7,30.03,SE,134,13.0,14.0,69,0.00,,,0.00,Wunderground v.1.15,2013-03-11 14:38:00,
2013-03-11 10:39:00,72.4,61.7,30.03,SE,138,14.0,14.0,69,0.00,,,0.00,Wunderground v.1.15,2013-03-11 14:39:00,
2013-03-11 10:41:00,72.4,61.7,30.03,SE,144,10.0,15.0,69,0.00,,,0.00,Wunderground v.1.15,2013-03-11 14:41:00,
2013-03-11 10:43:00,72.6,62.3,30.02,SE,134,8.0,15.0,70,0.00,,,0.00,Wunderground v.1.15,2013-03-11 14:43:00,
2013-03-11 10:44:00,72.7,61.9,30.02,ESE,120,5.0,15.0,69,0.00,,,0.00,Wunderground v.1.15,2013-03-11 14:44:00,
2013-03-11 10:45:00,72.7,61.9,30.02,ESE,115,7.0,15.0,69,0.00,,,0.00,Wunderground v.1.15,2013-03-11 14:45:00,
2013-03-11 10:47:00,72.8,62.0,30.02,SSE,152,10.0,15.0,69,0.00,,,0.00,Wunderground v.1.15,2013-03-11 14:47:00,
2013-03-11 10:49:00,72.7,61.5,30.02,East,99,7.0,15.0,68,0.00,,,0.00,Wunderground v.1.15,2013-03-11 14:49:00,
2013-03-11 10:50:00,72.7,61.5,30.02,SSE,154,11.0,11.0,68,0.00,,,0.00,Wunderground v.1.15,2013-03-11 14:50:00,
2013-03-11 10:51:00,72.6,61.8,30.03,SE,133,3.0,13.0,69,0.00,,,0.00,Wunderground v.1.15,2013-03-11 14:51:00,
2013-03-11 10:54:00,72.6,61.8,30.02,SE,138,6.0,13.0,69,0.00,,,0.00,Wunderground v.1.15,2013-03-11 14:54:00,
2013-03-11 10:55:00,72.7,61.9,30.02,SE,136,10.0,13.0,69,0.00,,,0.00,Wunderground v.1.15,2013-03-11 14:55:00,
2013-03-11 10:56:00,72.7,61.9,30.02,ESE,123,8.0,13.0,69,0.00,,,0.00,Wunderground v.1.15,2013-03-11 14:56:00,
2013-03-11 10:59:00,72.5,62.2,30.03,ESE,121,11.0,13.0,70,0.00,,,0.00,Wunderground v.1.15,2013-03-11 14:59:00,
2013-03-11 11:01:00,72.3,62.0,30.03,ESE,116,7.0,14.0,70,0.00,,,0.00,Wunderground v.1.15,2013-03-11 15:01:00,
2013-03-11 11:05:00,72.0,61.7,30.02,ESE,121,9.0,14.0,70,0.00,,,0.00,Wunderground v.1.15,2013-03-11 15:05:00,
2013-03-11 11:06:00,71.9,62.0,30.02,ESE,119,5.0,14.0,71,0.00,,,0.00,Wunderground v.1.15,2013-03-11 15:06:00,
2013-03-11 11:07:00,71.9,62.4,30.02,SSE,155,6.0,14.0,72,0.00,,,0.00,Wunderground v.1.15,2013-03-11 15:07:00,
2013-03-11 11:10:00,72.0,62.5,30.02,SE,134,6.0,9.0,72,0.00,,,0.00,Wunderground v.1.15,2013-03-11 15:10:00,
2013-03-11 11:12:00,71.9,62.0,30.02,SSE,153,8.0,10.0,71,0.00,,,0.00,Wunderground v.1.15,2013-03-11 15:12:00,
2013-03-11 11:15:00,72.0,62.1,30.02,SE,126,3.0,10.0,71,0.00,,,0.00,Wunderground v.1.15,2013-03-11 15:15:00,
2013-03-11 11:17:00,72.2,62.7,30.02,ESE,114,5.0,10.0,72,0.00,,,0.00,Wunderground v.1.15,2013-03-11 15:17:00,
2013-03-11 11:21:00,73.0,63.0,30.02,SSE,157,10.0,10.0,71,0.00,,,0.00,Wunderground v.1.15,2013-03-11 15:21:00,
2013-03-11 11:22:00,73.2,62.8,30.02,ESE,111,5.0,10.0,70,0.00,,,0.00,Wunderground v.1.15,2013-03-11 15:22:00,
2013-03-11 11:23:00,73.2,62.8,30.02,ESE,109,10.0,11.0,70,0.00,,,0.00,Wunderground v.1.15,2013-03-11 15:23:00,
2013-03-11 11:26:00,73.0,62.2,30.02,SE,126,10.0,11.0,69,0.00,,,0.00,Wunderground v.1.15,2013-03-11 15:26:00,
2013-03-11 11:28:00,72.9,61.7,30.02,SE,134,7.0,11.0,68,0.00,,,0.00,Wunderground v.1.15,2013-03-11 15:28:00,
2013-03-11 11:30:00,72.9,61.7,30.02,SE,134,8.0,8.0,68,0.00,,,0.00,Wunderground v.1.15,2013-03-11 15:30:00,
2013-03-11 11:31:00,72.9,61.7,30.02,SE,134,8.0,12.0,68,0.00,,,0.00,Wunderground v.1.15,2013-03-11 15:31:00,
2013-03-11 11:33:00,72.8,61.6,30.02,ESE,121,9.0,14.0,68,0.00,,,0.00,Wunderground v.1.15,2013-03-11 15:33:00,
2013-03-11 11:35:00,72.7,61.9,30.02,SSE,153,5.0,14.0,69,0.00,,,0.00,Wunderground v.1.15,2013-03-11 15:35:00,
2013-03-11 11:38:00,72.6,62.3,30.02,ESE,119,7.0,14.0,70,0.00,,,0.00,Wunderground v.1.15,2013-03-11 15:38:00,
2013-03-11 11:41:00,72.7,62.3,30.02,ESE,107,6.0,10.0,70,0.00,,,0.00,Wunderground v.1.15,2013-03-11 15:41:00,
2013-03-11 11:43:00,72.7,62.3,30.02,SE,138,5.0,10.0,70,0.00,,,0.00,Wunderground v.1.15,2013-03-11 15:43:00,
2013-03-11 11:44:00,72.8,62.8,30.02,East,96,6.0,10.0,71,0.00,,,0.00,Wunderground v.1.15,2013-03-11 15:44:00,
2013-03-11 11:47:00,73.0,62.6,30.02,ESE,110,6.0,13.0,70,0.00,,,0.00,Wunderground v.1.15,2013-03-11 15:47:00,
2013-03-11 11:48:00,73.0,62.2,30.02,ESE,105,8.0,13.0,69,0.00,,,0.00,Wunderground v.1.15,2013-03-11 15:48:00,
2013-03-11 11:49:00,73.0,62.2,30.02,ESE,119,5.0,13.0,69,0.00,,,0.00,Wunderground v.1.15,2013-03-11 15:49:00,
2013-03-11 11:53:00,73.1,62.7,30.01,SE,140,8.0,10.0,70,0.00,,,0.00,Wunderground v.1.15,2013-03-11 15:53:00,
2013-03-11 11:54:00,73.1,62.7,30.02,SSE,153,8.0,13.0,70,0.00,,,0.00,Wunderground v.1.15,2013-03-11 15:54:00,
2013-03-11 11:55:00,73.1,61.9,30.02,East,100,9.0,13.0,68,0.00,,,0.00,Wunderground v.1.15,2013-03-11 15:55:00,
2013-03-11 11:58:00,73.1,61.9,30.01,SE,135,10.0,13.0,68,0.00,,,0.00,Wunderground v.1.15,2013-03-11 15:58:00,
2013-03-11 11:59:00,73.1,61.9,30.01,SE,130,11.0,13.0,68,0.00,,,0.00,Wunderground v.1.15,2013-03-11 15:59:00,
2013-03-11 12:00:00,73.1,61.9,30.01,SE,133,8.0,9.0,68,0.00,,,0.00,Wunderground v.1.15,2013-03-11 16:00:00,
2013-03-11 12:04:00,73.1,61.9,30.02,SE,130,11.0,12.0,68,0.00,,,0.00,Wunderground v.1.15,2013-03-11 16:04:00,
2013-03-11 12:05:00,73.1,61.9,30.02,SE,144,5.0,12.0,68,0.00,,,0.00,Wunderground v.1.15,2013-03-11 16:05:00,
2013-03-11 12:06:00,73.1,62.3,30.01,ESE,121,7.0,12.0,69,0.00,,,0.00,Wunderground v.1.15,2013-03-11 16:06:00,
2013-03-11 12:10:00,73.0,62.2,30.02,SE,128,6.0,8.0,69,0.00,,,0.00,Wunderground v.1.15,2013-03-11 16:10:00,
2013-03-11 12:11:00,73.2,62.8,30.01,ESE,107,7.0,11.0,70,0.00,,,0.00,Wunderground v.1.15,2013-03-11 16:11:00,
2013-03-11 12:12:00,73.2,62.4,30.01,East,96,7.0,11.0,69,0.00,,,0.00,Wunderground v.1.15,2013-03-11 16:12:00,
2013-03-11 12:15:00,73.2,62.4,30.01,SE,128,4.0,11.0,69,0.00,,,0.00,Wunderground v.1.15,2013-03-11 16:15:00,
2013-03-11 12:16:00,73.3,62.9,30.01,SE,145,9.0,11.0,70,0.00,,,0.00,Wunderground v.1.15,2013-03-11 16:16:00,
2013-03-11 12:17:00,73.4,62.6,30.01,SSE,159,9.0,11.0,69,0.00,,,0.00,Wunderground v.1.15,2013-03-11 16:17:00,
2013-03-11 12:20:00,73.7,62.9,30.01,ESE,120,7.0,12.0,69,0.00,,,0.00,Wunderground v.1.15,2013-03-11 16:20:00,
2013-03-11 12:21:00,73.6,63.2,30.01,ESE,103,8.0,12.0,70,0.00,,,0.00,Wunderground v.1.15,2013-03-11 16:21:00,
2013-03-11 12:22:00,73.5,62.7,30.01,ESE,114,9.0,12.0,69,0.00,,,0.00,Wunderground v.1.15,2013-03-11 16:22:00,
2013-03-11 12:26:00,73.1,62.7,30.01,SE,132,6.0,13.0,70,0.00,,,0.00,Wunderground v.1.15,2013-03-11 16:26:00,
2013-03-11 12:27:00,73.3,62.9,30.01,ESE,118,7.0,13.0,70,0.00,,,0.00,Wunderground v.1.15,2013-03-11 16:27:00,
2013-03-11 12:28:00,73.4,63.0,30.01,SE,142,8.0,13.0,70,0.00,,,0.00,Wunderground v.1.15,2013-03-11 16:28:00,
2013-03-11 12:31:00,73.6,62.8,30.01,ESE,121,8.0,14.0,69,0.00,,,0.00,Wunderground v.1.15,2013-03-11 16:31:00,
2013-03-11 12:32:00,73.5,62.7,30.01,ESE,116,8.0,14.0,69,0.00,,,0.00,Wunderground v.1.15,2013-03-11 16:32:00,
2013-03-11 12:33:00,73.5,62.7,30.01,ESE,116,7.0,14.0,69,0.00,,,0.00,Wunderground v.1.15,2013-03-11 16:33:00,
2013-03-11 12:36:00,73.6,63.2,30.00,SE,131,4.0,14.0,70,0.00,,,0.00,Wunderground v.1.15,2013-03-11 16:36:00,
2013-03-11 12:37:00,73.6,62.8,30.01,SE,141,4.0,14.0,69,0.00,,,0.00,Wunderground v.1.15,2013-03-11 16:37:00,
2013-03-11 12:38:00,73.6,63.2,30.01,SE,134,6.0,14.0,70,0.00,,,0.00,Wunderground v.1.15,2013-03-11 16:38:00,
2013-03-11 12:41:00,73.7,62.5,30.01,South,169,8.0,11.0,68,0.00,,,0.00,Wunderground v.1.15,2013-03-11 16:41:00,
2013-03-11 12:43:00,73.6,62.4,30.00,SE,125,10.0,13.0,68,0.00,,,0.00,Wunderground v.1.15,2013-03-11 16:43:00,
2013-03-11 12:44:00,73.6,62.4,30.01,SE,128,11.0,13.0,68,0.00,,,0.00,Wunderground v.1.15,2013-03-11 16:44:00,
2013-03-11 12:46:00,73.5,62.7,30.00,ESE,120,9.0,13.0,69,0.00,,,0.00,Wunderground v.1.15,2013-03-11 16:46:00,
2013-03-11 12:48:00,73.4,62.6,30.00,ENE,76,7.0,13.0,69,0.00,,,0.00,Wunderground v.1.15,2013-03-11 16:48:00,
2013-03-11 12:49:00,73.3,62.5,30.00,East,92,7.0,13.0,69,0.00,,,0.00,Wunderground v.1.15,2013-03-11 16:49:00,
2013-03-11 12:52:00,73.2,62.8,30.00,ESE,119,7.0,14.0,70,0.00,,,0.00,Wunderground v.1.15,2013-03-11 16:52:00,
2013-03-11 12:54:00,73.3,62.9,30.00,ESE,120,4.0,14.0,70,0.00,,,0.00,Wunderground v.1.15,2013-03-11 16:54:00,
2013-03-11 12:58:00,73.5,62.7,30.00,ESE,113,10.0,14.0,69,0.00,,,0.00,Wunderground v.1.15,2013-03-11 16:58:00,
2013-03-11 12:59:00,73.6,62.8,30.00,ESE,107,7.0,14.0,69,0.00,,,0.00,Wunderground v.1.15,2013-03-11 16:59:00,
2013-03-11 13:00:00,73.5,62.7,30.00,ESE,113,9.0,12.0,69,0.00,,,0.00,Wunderground v.1.15,2013-03-11 17:00:00,
2013-03-11 13:03:00,73.5,63.5,30.00,ESE,104,10.0,13.0,71,0.00,,,0.00,Wunderground v.1.15,2013-03-11 17:03:00,
2013-03-11 13:05:00,73.3,62.9,30.00,SE,143,7.0,13.0,70,0.00,,,0.00,Wunderground v.1.15,2013-03-11 17:05:00,
2013-03-11 13:09:00,73.2,63.6,30.00,SE,132,8.0,13.0,72,0.00,,,0.00,Wunderground v.1.15,2013-03-11 17:09:00,
2013-03-11 13:10:00,73.2,63.2,30.00,SE,136,9.0,9.0,71,0.00,,,0.00,Wunderground v.1.15,2013-03-11 17:10:00,
2013-03-11 13:11:00,73.2,63.2,30.00,SE,135,9.0,9.0,71,0.00,,,0.00,Wunderground v.1.15,2013-03-11 17:11:00,
2013-03-11 13:14:00,73.1,62.7,30.00,SSE,148,5.0,13.0,70,0.00,,,0.00,Wunderground v.1.15,2013-03-11 17:14:00,
2013-03-11 13:16:00,73.0,62.6,30.00,ESE,117,9.0,13.0,70,0.00,,,0.00,Wunderground v.1.15,2013-03-11 17:16:00,
2013-03-11 13:17:00,73.0,63.0,30.00,SSE,152,7.0,13.0,71,0.00,,,0.00,Wunderground v.1.15,2013-03-11 17:17:00,
2013-03-11 13:20:00,73.0,62.6,30.00,SE,135,6.0,8.0,70,0.00,,,0.00,Wunderground v.1.15,2013-03-11 17:20:00,
2013-03-11 13:21:00,73.1,63.1,29.99,East,98,7.0,9.0,71,0.00,,,0.00,Wunderground v.1.15,2013-03-11 17:21:00,
2013-03-11 13:22:00,73.1,63.1,29.99,ESE,103,9.0,10.0,71,0.00,,,0.00,Wunderground v.1.15,2013-03-11 17:22:00,
2013-03-11 13:25:00,73.2,62.8,29.99,SSE,150,8.0,12.0,70,0.00,,,0.00,Wunderground v.1.15,2013-03-11 17:25:00,
2013-03-11 13:26:00,73.3,62.9,29.99,ESE,107,7.0,12.0,70,0.00,,,0.00,Wunderground v.1.15,2013-03-11 17:26:00,
2013-03-11 13:27:00,73.4,63.0,29.99,ESE,105,6.0,12.0,70,0.00,,,0.00,Wunderground v.1.15,2013-03-11 17:27:00,
2013-03-11 13:28:00,73.4,63.0,29.99,ESE,105,7.0,12.0,70,0.00,,,0.00,Wunderground v.1.15,2013-03-11 17:28:00,
2013-03-11 13:30:00,73.6,63.6,29.99,SE,129,7.0,10.0,71,0.00,,,0.00,Wunderground v.1.15,2013-03-11 17:30:00,
2013-03-11 13:32:00,73.6,62.8,29.99,ESE,123,5.0,11.0,69,0.00,,,0.00,Wunderground v.1.15,2013-03-11 17:32:00,
2013-03-11 13:33:00,73.7,62.9,29.99,East,95,7.0,11.0,69,0.00,,,0.00,Wunderground v.1.15,2013-03-11 17:33:00,
2013-03-11 13:35:00,73.7,62.9,29.99,SE,127,1.0,11.0,69,0.00,,,0.00,Wunderground v.1.15,2013-03-11 17:35:00,
2013-03-11 13:37:00,73.7,63.3,29.99,SE,144,7.0,11.0,70,0.00,,,0.00,Wunderground v.1.15,2013-03-11 17:37:00,
2013-03-11 13:38:00,73.8,63.8,29.99,SSE,150,5.0,11.0,71,0.00,,,0.00,Wunderground v.1.15,2013-03-11 17:38:00,
2013-03-11 13:40:00,73.9,63.1,29.98,South,174,7.0,7.0,69,0.00,,,0.00,Wunderground v.1.15,2013-03-11 17:40:00,
2013-03-11 13:42:00,74.0,63.2,29.98,SE,126,6.0,11.0,69,0.00,,,0.00,Wunderground v.1.15,2013-03-11 17:42:00,
2013-03-11 13:43:00,73.9,63.1,29.98,ESE,122,6.0,11.0,69,0.00,,,0.00,Wunderground v.1.15,2013-03-11 17:43:00,
2013-03-11 13:45:00,73.8,63.0,29.98,ESE,109,6.0,11.0,69,0.00,,,0.00,Wunderground v.1.15,2013-03-11 17:45:00,
2013-03-11 13:46:00,73.8,63.0,29.98,ESE,118,7.0,11.0,69,0.00,,,0.00,Wunderground v.1.15,2013-03-11 17:46:00,
2013-03-11 13:47:00,73.7,62.9,29.98,SE,124,10.0,11.0,69,0.00,,,0.00,Wunderground v.1.15,2013-03-11 17:47:00,
2013-03-11 13:48:00,73.6,62.8,29.98,SE,140,15.0,15.0,69,0.00,,,0.00,Wunderground v.1.15,2013-03-11 17:48:00,
2013-03-11 13:51:00,73.5,62.7,29.98,South,169,6.0,10.0,69,0.00,,,0.00,Wunderground v.1.15,2013-03-11 17:51:00,
2013-03-11 13:53:00,73.5,63.1,29.98,East,100,6.0,10.0,70,0.00,,,0.00,Wunderground v.1.15,2013-03-11 17:53:00,
2013-03-11 13:54:00,73.5,63.1,29.98,SE,136,6.0,10.0,70,0.00,,,0.00,Wunderground v.1.15,2013-03-11 17:54:00,
2013-03-11 13:56:00,73.5,62.7,29.98,ESE,113,7.0,12.0,69,0.00,,,0.00,Wunderground v.1.15,2013-03-11 17:56:00,
2013-03-11 13:57:00,73.6,62.8,29.98,SE,126,6.0,12.0,69,0.00,,,0.00,Wunderground v.1.15,2013-03-11 17:57:00,
2013-03-11 13:59:00,73.7,62.9,29.98,SSE,164,6.0,12.0,69,0.00,,,0.00,Wunderground v.1.15,2013-03-11 17:59:00,
2013-03-11 14:02:00,74.0,63.2,29.98,SE,144,8.0,11.0,69,0.00,,,0.00,Wunderground v.1.15,2013-03-11 18:02:00,
2013-03-11 14:04:00,74.0,63.2,29.98,ESE,117,10.0,14.0,69,0.00,,,0.00,Wunderground v.1.15,2013-03-11 18:04:00,
2013-03-11 14:07:00,73.7,62.9,29.98,SE,140,7.0,14.0,69,0.00,,,0.00,Wunderground v.1.15,2013-03-11 18:07:00,
2013-03-11 14:09:00,73.6,62.8,29.98,SE,131,3.0,14.0,69,0.00,,,0.00,Wunderground v.1.15,2013-03-11 18:09:00,
2013-03-11 14:10:00,73.6,62.8,29.98,South,179,3.0,9.0,69,0.00,,,0.00,Wunderground v.1.15,2013-03-11 18:10:00,
2013-03-11 14:13:00,73.6,63.2,29.98,SE,138,8.0,12.0,70,0.00,,,0.00,Wunderground v.1.15,2013-03-11 18:13:00,
2013-03-11 14:14:00,73.7,62.9,29.97,SE,128,6.0,12.0,69,0.00,,,0.00,Wunderground v.1.15,2013-03-11 18:14:00,
2013-03-11 14:15:00,73.7,62.9,29.97,SE,136,12.0,12.0,69,0.00,,,0.00,Wunderground v.1.15,2013-03-11 18:15:00,
2013-03-11 14:16:00,73.7,62.9,29.98,SE,131,9.0,13.0,69,0.00,,,0.00,Wunderground v.1.15,2013-03-11 18:16:00,
2013-03-11 14:18:00,73.7,62.9,29.98,SSE,148,5.0,13.0,69,0.00,,,0.00,Wunderground v.1.15,2013-03-11 18:18:00,
2013-03-11 14:19:00,73.7,62.9,29.98,SE,136,6.0,7.0,69,0.00,,,0.00,Wunderground v.1.15,2013-03-11 18:19:00,
2013-03-11 14:20:00,73.6,63.2,29.98,ESE,117,6.0,11.0,70,0.00,,,0.00,Wunderground v.1.15,2013-03-11 18:20:00,
2013-03-11 14:21:00,73.6,62.8,29.98,SE,128,3.0,11.0,69,0.00,,,0.00,Wunderground v.1.15,2013-03-11 18:21:00,
2013-03-11 14:23:00,73.5,62.7,29.98,SE,124,9.0,11.0,69,0.00,,,0.00,Wunderground v.1.15,2013-03-11 18:23:00,
2013-03-11 14:25:00,73.4,62.6,29.98,SSE,150,6.0,11.0,69,0.00,,,0.00,Wunderground v.1.15,2013-03-11 18:25:00,
2013-03-11 14:26:00,73.3,62.9,29.98,SE,134,9.0,11.0,70,0.00,,,0.00,Wunderground v.1.15,2013-03-11 18:26:00,
2013-03-11 14:27:00,73.3,62.5,29.98,SE,126,9.0,11.0,69,0.00,,,0.00,Wunderground v.1.15,2013-03-11 18:27:00,
2013-03-11 14:28:00,73.3,62.5,29.98,SE,132,4.0,11.0,69,0.00,,,0.00,Wunderground v.1.15,2013-03-11 18:28:00,
2013-03-11 14:30:00,73.4,62.6,29.98,SE,131,8.0,10.0,69,0.00,,,0.00,Wunderground v.1.15,2013-03-11 18:30:00,
2013-03-11 14:31:00,73.5,62.3,29.98,SE,142,5.0,10.0,68,0.00,,,0.00,Wunderground v.1.15,2013-03-11 18:31:00,
2013-03-11 14:33:00,73.5,62.3,29.98,South,171,6.0,10.0,68,0.00,,,0.00,Wunderground v.1.15,2013-03-11 18:33:00,
2013-03-11 14:35:00,73.6,62.4,29.98,SE,144,0.0,10.0,68,0.00,,,0.00,Wunderground v.1.15,2013-03-11 18:35:00,
2013-03-11 14:36:00,73.7,62.9,29.98,SE,138,4.0,10.0,69,0.00,,,0.00,Wunderground v.1.15,2013-03-11 18:36:00,
2013-03-11 14:38:00,74.0,63.2,29.98,South,178,2.0,10.0,69,0.00,,,0.00,Wunderground v.1.15,2013-03-11 18:38:00,
2013-03-11 14:39:00,74.1,62.9,29.98,SSE,165,4.0,10.0,68,0.00,,,0.00,Wunderground v.1.15,2013-03-11 18:39:00,
2013-03-11 14:40:00,74.2,63.0,29.98,SE,146,7.0,7.0,68,0.00,,,0.00,Wunderground v.1.15,2013-03-11 18:40:00,
2013-03-11 14:41:00,74.3,63.5,29.98,SE,144,4.0,10.0,69,0.00,,,0.00,Wunderground v.1.15,2013-03-11 18:41:00,
2013-03-11 14:44:00,74.3,63.1,29.98,ESE,123,1.0,10.0,68,0.00,,,0.00,Wunderground v.1.15,2013-03-11 18:44:00,
2013-03-11 14:45:00,74.4,63.1,29.98,SSE,148,6.0,10.0,68,0.00,,,0.00,Wunderground v.1.15,2013-03-11 18:45:00,
2013-03-11 14:47:00,74.4,62.7,29.98,SE,144,7.0,10.0,67,0.00,,,0.00,Wunderground v.1.15,2013-03-11 18:47:00,
2013-03-11 14:50:00,74.4,62.7,29.98,SE,126,1.0,6.0,67,0.00,,,0.00,Wunderground v.1.15,2013-03-11 18:50:00,
2013-03-11 14:51:00,74.3,62.2,29.98,ESE,123,5.0,9.0,66,0.00,,,0.00,Wunderground v.1.15,2013-03-11 18:51:00,
2013-03-11 14:52:00,74.3,62.6,29.98,ESE,114,1.0,9.0,67,0.00,,,0.00,Wunderground v.1.15,2013-03-11 18:52:00,
2013-03-11 14:55:00,74.2,63.0,29.98,ESE,102,4.0,9.0,68,0.00,,,0.00,Wunderground v.1.15,2013-03-11 18:55:00,
2013-03-11 14:56:00,74.1,62.9,29.98,SE,146,5.0,9.0,68,0.00,,,0.00,Wunderground v.1.15,2013-03-11 18:56:00,
2013-03-11 14:57:00,74.2,63.4,29.98,SE,136,9.0,9.0,69,0.00,,,0.00,Wunderground v.1.15,2013-03-11 18:57:00,
2013-03-11 14:59:00,74.3,62.6,29.98,South,173,9.0,9.0,67,0.00,,,0.00,Wunderground v.1.15,2013-03-11 18:59:00,
2013-03-11 15:00:00,74.3,62.2,29.98,South,170,4.0,9.0,66,0.00,,,0.00,Wunderground v.1.15,2013-03-11 19:00:00,
2013-03-11 15:02:00,74.4,62.3,29.98,SSE,157,5.0,9.0,66,0.00,,,0.00,Wunderground v.1.15,2013-03-11 19:02:00,
2013-03-11 15:04:00,74.6,62.5,29.98,SE,145,5.0,10.0,66,0.00,,,0.00,Wunderground v.1.15,2013-03-11 19:04:00,
2013-03-11 15:06:00,74.5,62.4,29.98,SE,135,2.0,10.0,66,0.00,,,0.00,Wunderground v.1.15,2013-03-11 19:06:00,
2013-03-11 15:07:00,74.4,62.7,29.98,SE,126,5.0,10.0,67,0.00,,,0.00,Wunderground v.1.15,2013-03-11 19:07:00,
2013-03-11 15:10:00,74.5,62.8,29.98,SE,136,5.0,9.0,67,0.00,,,0.00,Wunderground v.1.15,2013-03-11 19:10:00,
2013-03-11 15:12:00,74.5,63.2,29.98,SE,135,7.0,9.0,68,0.00,,,0.00,Wunderground v.1.15,2013-03-11 19:12:00,
2013-03-11 15:13:00,74.5,62.8,29.98,SE,134,9.0,9.0,67,0.00,,,0.00,Wunderground v.1.15,2013-03-11 19:13:00,
2013-03-11 15:15:00,74.3,63.1,29.98,SE,134,7.0,13.0,68,0.00,,,0.00,Wunderground v.1.15,2013-03-11 19:15:00,
2013-03-11 15:17:00,74.2,62.5,29.98,SE,130,7.0,13.0,67,0.00,,,0.00,Wunderground v.1.15,2013-03-11 19:17:00,
2013-03-11 15:18:00,74.2,62.5,29.98,SSE,165,4.0,13.0,67,0.00,,,0.00,Wunderground v.1.15,2013-03-11 19:18:00,
2013-03-11 15:19:00,74.1,62.9,29.98,SE,141,8.0,13.0,68,0.00,,,0.00,Wunderground v.1.15,2013-03-11 19:19:00,
2013-03-11 15:21:00,73.9,62.7,29.98,SE,144,10.0,10.0,68,0.00,,,0.00,Wunderground v.1.15,2013-03-11 19:21:00,
2013-03-11 15:22:00,73.8,62.6,29.98,SE,126,10.0,10.0,68,0.00,,,0.00,Wunderground v.1.15,2013-03-11 19:22:00,
2013-03-11 15:24:00,73.7,62.5,29.98,SE,142,7.0,10.0,68,0.00,,,0.00,Wunderground v.1.15,2013-03-11 19:24:00,
2013-03-11 15:27:00,73.6,62.4,29.98,SE,128,4.0,10.0,68,0.00,,,0.00,Wunderground v.1.15,2013-03-11 19:27:00,
2013-03-11 15:28:00,73.6,62.4,29.98,SSE,153,7.0,10.0,68,0.00,,,0.00,Wunderground v.1.15,2013-03-11 19:28:00,
2013-03-11 15:30:00,73.7,62.5,29.98,SE,146,4.0,6.0,68,0.00,,,0.00,Wunderground v.1.15,2013-03-11 19:30:00,
2013-03-11 15:33:00,73.8,62.2,29.98,SSE,148,3.0,11.0,67,0.00,,,0.00,Wunderground v.1.15,2013-03-11 19:33:00,
2013-03-11 15:34:00,73.8,62.2,29.98,SE,145,6.0,11.0,67,0.00,,,0.00,Wunderground v.1.15,2013-03-11 19:34:00,
2013-03-11 15:35:00,73.8,62.2,29.98,South,175,4.0,11.0,67,0.00,,,0.00,Wunderground v.1.15,2013-03-11 19:35:00,
2013-03-11 15:38:00,73.9,62.7,29.97,SSE,147,5.0,11.0,68,0.00,,,0.00,Wunderground v.1.15,2013-03-11 19:38:00,
2013-03-11 15:39:00,73.9,62.7,29.97,SE,142,4.0,5.0,68,0.00,,,0.00,Wunderground v.1.15,2013-03-11 19:39:00,
2013-03-11 15:40:00,74.0,62.8,29.97,SE,143,6.0,6.0,68,0.00,,,0.00,Wunderground v.1.15,2013-03-11 19:40:00,
2013-03-11 15:41:00,74.0,62.3,29.97,SE,146,1.0,6.0,67,0.00,,,0.00,Wunderground v.1.15,2013-03-11 19:41:00,
2013-03-11 15:43:00,74.0,62.3,29.98,SSE,156,4.0,6.0,67,0.00,,,0.00,Wunderground v.1.15,2013-03-11 19:43:00,
2013-03-11 15:44:00,74.0,62.3,29.98,SE,144,1.0,6.0,67,0.00,,,0.00,Wunderground v.1.15,2013-03-11 19:44:00,
2013-03-11 15:45:00,74.0,62.3,29.98,ESE,122,6.0,6.0,67,0.00,,,0.00,Wunderground v.1.15,2013-03-11 19:45:00,
2013-03-11 15:46:00,74.0,62.3,29.97,SE,129,7.0,7.0,67,0.00,,,0.00,Wunderground v.1.15,2013-03-11 19:46:00,
2013-03-11 15:48:00,74.0,62.3,29.97,SSE,155,2.0,9.0,67,0.00,,,0.00,Wunderground v.1.15,2013-03-11 19:48:00,
2013-03-11 15:50:00,73.9,62.2,29.97,SE,136,0.0,4.0,67,0.00,,,0.00,Wunderground v.1.15,2013-03-11 19:50:00,
2013-03-11 15:52:00,73.9,62.7,29.97,SE,143,4.0,7.0,68,0.00,,,0.00,Wunderground v.1.15,2013-03-11 19:52:00,
2013-03-11 15:54:00,74.0,62.8,29.98,SSE,147,5.0,9.0,68,0.00,,,0.00,Wunderground v.1.15,2013-03-11 19:54:00,
2013-03-11 15:55:00,74.0,62.8,29.98,SE,129,7.0,9.0,68,0.00,,,0.00,Wunderground v.1.15,2013-03-11 19:55:00,
2013-03-11 15:57:00,74.0,62.3,29.98,SE,142,5.0,9.0,67,0.00,,,0.00,Wunderground v.1.15,2013-03-11 19:57:00,
2013-03-11 16:00:00,74.1,62.4,29.98,SSE,153,0.0,5.0,67,0.00,,,0.00,Wunderground v.1.15,2013-03-11 20:00:00,
2013-03-11 16:01:00,74.1,62.4,29.98,SSE,163,4.0,5.0,67,0.00,,,0.00,Wunderground v.1.15,2013-03-11 20:01:00,
2013-03-11 16:02:00,74.1,62.4,29.98,SSE,164,2.0,9.0,67,0.00,,,0.00,Wunderground v.1.15,2013-03-11 20:02:00,
2013-03-11 16:05:00,74.1,62.9,29.97,ESE,109,1.0,9.0,68,0.00,,,0.00,Wunderground v.1.15,2013-03-11 20:05:00,
2013-03-11 16:06:00,74.2,63.0,29.97,SE,144,0.0,9.0,68,0.00,,,0.00,Wunderground v.1.15,2013-03-11 20:06:00,
2013-03-11 16:07:00,74.2,63.0,29.97,SE,133,4.0,9.0,68,0.00,,,0.00,Wunderground v.1.15,2013-03-11 20:07:00,
2013-03-11 16:08:00,74.2,63.4,29.97,SE,136,4.0,9.0,69,0.00,,,0.00,Wunderground v.1.15,2013-03-11 20:08:00,
2013-03-11 16:10:00,74.3,63.1,29.97,South,173,3.0,6.0,68,0.00,,,0.00,Wunderground v.1.15,2013-03-11 20:10:00,
2013-03-11 16:12:00,74.4,63.1,29.97,South,178,7.0,8.0,68,0.00,,,0.00,Wunderground v.1.15,2013-03-11 20:12:00,
2013-03-11 16:13:00,74.4,63.1,29.97,SSE,163,6.0,8.0,68,0.00,,,0.00,Wunderground v.1.15,2013-03-11 20:13:00,
2013-03-11 16:16:00,74.3,63.1,29.97,South,172,4.0,9.0,68,0.00,,,0.00,Wunderground v.1.15,2013-03-11 20:16:00,
2013-03-11 16:17:00,74.3,63.1,29.97,South,178,4.0,9.0,68,0.00,,,0.00,Wunderground v.1.15,2013-03-11 20:17:00,
2013-03-11 16:18:00,74.3,63.1,29.97,South,178,1.0,9.0,68,0.00,,,0.00,Wunderground v.1.15,2013-03-11 20:18:00,
2013-03-11 16:21:00,74.2,63.4,29.97,SSE,152,6.0,7.0,69,0.00,,,0.00,Wunderground v.1.15,2013-03-11 20:21:00,
2013-03-11 16:22:00,74.2,63.4,29.97,SSE,167,8.0,9.0,69,0.00,,,0.00,Wunderground v.1.15,2013-03-11 20:22:00,
2013-03-11 16:23:00,74.2,63.4,29.97,SSE,162,8.0,10.0,69,0.00,,,0.00,Wunderground v.1.15,2013-03-11 20:23:00,
2013-03-11 16:24:00,74.1,63.3,29.97,SSE,167,3.0,10.0,69,0.00,,,0.00,Wunderground v.1.15,2013-03-11 20:24:00,
2013-03-11 16:26:00,74.0,63.6,29.97,ESE,115,7.0,10.0,70,0.00,,,0.00,Wunderground v.1.15,2013-03-11 20:26:00,
2013-03-11 16:28:00,73.9,63.1,29.97,ESE,121,0.0,10.0,69,0.00,,,0.00,Wunderground v.1.15,2013-03-11 20:28:00,
2013-03-11 16:29:00,73.9,63.5,29.97,ESE,111,4.0,10.0,70,0.00,,,0.00,Wunderground v.1.15,2013-03-11 20:29:00,
2013-03-11 16:31:00,73.8,63.4,29.97,SE,144,3.0,9.0,70,0.00,,,0.00,Wunderground v.1.15,2013-03-11 20:31:00,
2013-03-11 16:34:00,73.8,63.4,29.97,SE,124,5.0,9.0,70,0.00,,,0.00,Wunderground v.1.15,2013-03-11 20:34:00,
2013-03-11 16:35:00,73.8,63.4,29.97,ESE,115,5.0,9.0,70,0.00,,,0.00,Wunderground v.1.15,2013-03-11 20:35:00,
2013-03-11 16:36:00,73.8,63.4,29.97,ESE,103,6.0,9.0,70,0.00,,,0.00,Wunderground v.1.15,2013-03-11 20:36:00,
2013-03-11 16:40:00,73.7,63.3,29.97,ESE,120,5.0,6.0,70,0.00,,,0.00,Wunderground v.1.15,2013-03-11 20:40:00,
2013-03-11 16:41:00,73.7,63.3,29.97,SE,140,8.0,11.0,70,0.00,,,0.00,Wunderground v.1.15,2013-03-11 20:41:00,
2013-03-11 16:45:00,73.5,62.7,29.97,SE,145,4.0,11.0,69,0.00,,,0.00,Wunderground v.1.15,2013-03-11 20:45:00,
2013-03-11 16:46:00,73.5,63.1,29.97,SE,131,5.0,11.0,70,0.00,,,0.00,Wunderground v.1.15,2013-03-11 20:46:00,
2013-03-11 16:47:00,73.5,63.1,29.97,ESE,115,12.0,12.0,70,0.00,,,0.00,Wunderground v.1.15,2013-03-11 20:47:00,
2013-03-11 16:50:00,73.4,63.0,29.97,SSE,155,5.0,6.0,70,0.00,,,0.00,Wunderground v.1.15,2013-03-11 20:50:00,
2013-03-11 16:51:00,73.4,63.0,29.97,SSE,152,8.0,8.0,70,0.00,,,0.00,Wunderground v.1.15,2013-03-11 20:51:00,
2013-03-11 16:52:00,73.4,63.0,29.97,SE,128,6.0,8.0,70,0.00,,,0.00,Wunderground v.1.15,2013-03-11 20:52:00,
2013-03-11 16:55:00,73.3,62.9,29.97,SE,127,7.0,8.0,70,0.00,,,0.00,Wunderground v.1.15,2013-03-11 20:55:00,
2013-03-11 16:56:00,73.3,62.9,29.97,SE,142,5.0,10.0,70,0.00,,,0.00,Wunderground v.1.15,2013-03-11 20:56:00,
2013-03-11 16:57:00,73.3,62.9,29.97,SE,144,4.0,10.0,70,0.00,,,0.00,Wunderground v.1.15,2013-03-11 20:57:00,
2013-03-11 17:00:00,73.4,63.0,29.96,SE,130,0.0,5.0,70,0.00,,,0.00,Wunderground v.1.15,2013-03-11 21:00:00,
2013-03-11 17:02:00,73.4,63.0,29.96,SE,141,4.0,6.0,70,0.00,,,0.00,Wunderground v.1.15,2013-03-11 21:02:00,
2013-03-11 17:07:00,73.7,63.3,29.96,SE,126,7.0,8.0,70,0.00,,,0.00,Wunderground v.1.15,2013-03-11 21:07:00,
2013-03-11 17:08:00,73.8,63.4,29.96,SE,132,6.0,8.0,70,0.00,,,0.00,Wunderground v.1.15,2013-03-11 21:08:00,
2013-03-11 17:12:00,74.0,63.6,29.95,ESE,115,8.0,10.0,70,0.00,,,0.00,Wunderground v.1.15,2013-03-11 21:12:00,
2013-03-11 17:13:00,74.0,63.6,29.95,SE,132,4.0,10.0,70,0.00,,,0.00,Wunderground v.1.15,2013-03-11 21:13:00,
2013-03-11 17:17:00,74.0,63.2,29.95,SE,134,0.0,10.0,69,0.00,,,0.00,Wunderground v.1.15,2013-03-11 21:17:00,
2013-03-11 17:18:00,74.0,63.6,29.95,SE,136,8.0,10.0,70,0.00,,,0.00,Wunderground v.1.15,2013-03-11 21:18:00,
2013-03-11 17:19:00,74.0,63.2,29.95,East,100,6.0,10.0,69,0.00,,,0.00,Wunderground v.1.15,2013-03-11 21:19:00,
2013-03-11 17:23:00,73.7,62.9,29.95,SSE,159,9.0,9.0,69,0.00,,,0.00,Wunderground v.1.15,2013-03-11 21:23:00,
2013-03-11 17:25:00,73.6,62.8,29.94,SE,139,5.0,9.0,69,0.00,,,0.00,Wunderground v.1.15,2013-03-11 21:25:00,
2013-03-11 17:28:00,73.7,63.3,29.94,SE,134,8.0,9.0,70,0.00,,,0.00,Wunderground v.1.15,2013-03-11 21:28:00,
2013-03-11 17:29:00,73.7,62.9,29.94,ESE,123,5.0,9.0,69,0.00,,,0.00,Wunderground v.1.15,2013-03-11 21:29:00,
2013-03-11 17:30:00,73.8,63.0,29.95,SE,138,6.0,10.0,69,0.00,,,0.00,Wunderground v.1.15,2013-03-11 21:30:00,
2013-03-11 17:33:00,73.8,63.4,29.94,SE,136,10.0,11.0,70,0.00,,,0.00,Wunderground v.1.15,2013-03-11 21:33:00,
2013-03-11 17:34:00,73.8,63.0,29.94,SE,125,9.0,11.0,69,0.00,,,0.00,Wunderground v.1.15,2013-03-11 21:34:00,
2013-03-11 17:35:00,73.8,63.0,29.94,ESE,116,7.0,11.0,69,0.00,,,0.00,Wunderground v.1.15,2013-03-11 21:35:00,
2013-03-11 17:37:00,73.9,63.5,29.94,SE,137,6.0,11.0,70,0.00,,,0.00,Wunderground v.1.15,2013-03-11 21:37:00,
2013-03-11 17:39:00,73.9,63.1,29.94,SE,132,5.0,11.0,69,0.00,,,0.00,Wunderground v.1.15,2013-03-11 21:39:00,
2013-03-11 17:40:00,73.9,63.5,29.94,SE,135,4.0,7.0,70,0.00,,,0.00,Wunderground v.1.15,2013-03-11 21:40:00,
2013-03-11 17:42:00,73.8,63.4,29.94,SE,131,2.0,7.0,70,0.00,,,0.00,Wunderground v.1.15,2013-03-11 21:42:00,
2013-03-11 17:44:00,73.8,63.4,29.94,ESE,123,4.0,10.0,70,0.00,,,0.00,Wunderground v.1.15,2013-03-11 21:44:00,
2013-03-11 17:46:00,73.8,63.0,29.94,ESE,115,5.0,10.0,69,0.00,,,0.00,Wunderground v.1.15,2013-03-11 21:46:00,
2013-03-11 17:47:00,73.8,63.0,29.93,SE,140,7.0,10.0,69,0.00,,,0.00,Wunderground v.1.15,2013-03-11 21:47:00,
2013-03-11 17:50:00,73.9,63.5,29.93,SE,134,7.0,7.0,70,0.00,,,0.00,Wunderground v.1.15,2013-03-11 21:50:00,
2013-03-11 17:52:00,73.9,63.5,29.93,SE,132,5.0,9.0,70,0.00,,,0.00,Wunderground v.1.15,2013-03-11 21:52:00,
2013-03-11 17:55:00,73.9,63.5,29.93,SSE,150,3.0,10.0,70,0.00,,,0.00,Wunderground v.1.15,2013-03-11 21:55:00,
2013-03-11 17:57:00,73.9,63.5,29.93,ESE,107,7.0,10.0,70,0.00,,,0.00,Wunderground v.1.15,2013-03-11 21:57:00,
2013-03-11 18:00:00,73.9,63.5,29.93,SE,133,7.0,10.0,70,0.00,,,0.00,Wunderground v.1.15,2013-03-11 22:00:00,
2013-03-11 18:02:00,73.9,63.1,29.93,SSE,148,10.0,10.0,69,0.00,,,0.00,Wunderground v.1.15,2013-03-11 22:02:00,
2013-03-11 18:05:00,73.8,63.8,29.93,ESE,114,8.0,10.0,71,0.00,,,0.00,Wunderground v.1.15,2013-03-11 22:05:00,
2013-03-11 18:06:00,73.8,63.4,29.93,East,98,8.0,10.0,70,0.00,,,0.00,Wunderground v.1.15,2013-03-11 22:06:00,
2013-03-11 18:07:00,73.8,63.4,29.93,SE,128,6.0,10.0,70,0.00,,,0.00,Wunderground v.1.15,2013-03-11 22:07:00,
2013-03-11 18:10:00,73.8,63.4,29.93,SE,125,3.0,9.0,70,0.00,,,0.00,Wunderground v.1.15,2013-03-11 22:10:00,
2013-03-11 18:11:00,73.7,63.3,29.92,SE,126,9.0,9.0,70,0.00,,,0.00,Wunderground v.1.15,2013-03-11 22:11:00,
2013-03-11 18:13:00,73.7,63.3,29.92,ESE,115,7.0,10.0,70,0.00,,,0.00,Wunderground v.1.15,2013-03-11 22:13:00,
2013-03-11 18:14:00,73.7,63.7,29.92,ESE,113,8.0,10.0,71,0.00,,,0.00,Wunderground v.1.15,2013-03-11 22:14:00,
2013-03-11 18:15:00,73.7,63.7,29.93,SE,139,2.0,10.0,71,0.00,,,0.00,Wunderground v.1.15,2013-03-11 22:15:00,
2013-03-11 18:16:00,73.6,63.6,29.93,ESE,113,6.0,10.0,71,0.00,,,0.00,Wunderground v.1.15,2013-03-11 22:16:00,
2013-03-11 18:18:00,73.6,63.2,29.93,SE,126,6.0,10.0,70,0.00,,,0.00,Wunderground v.1.15,2013-03-11 22:18:00,
2013-03-11 18:19:00,73.6,63.6,29.92,SSE,168,5.0,10.0,71,0.00,,,0.00,Wunderground v.1.15,2013-03-11 22:19:00,
2013-03-11 18:21:00,73.5,63.5,29.92,SE,132,8.0,11.0,71,0.00,,,0.00,Wunderground v.1.15,2013-03-11 22:21:00,
2013-03-11 18:22:00,73.5,63.5,29.92,SE,126,7.0,11.0,71,0.00,,,0.00,Wunderground v.1.15,2013-03-11 22:22:00,
2013-03-11 18:24:00,73.5,63.5,29.92,ESE,123,6.0,11.0,71,0.00,,,0.00,Wunderground v.1.15,2013-03-11 22:24:00,
2013-03-11 18:27:00,73.4,63.8,29.92,ESE,114,5.0,11.0,72,0.00,,,0.00,Wunderground v.1.15,2013-03-11 22:27:00,
2013-03-11 18:29:00,73.3,63.7,29.92,SE,134,11.0,11.0,72,0.00,,,0.00,Wunderground v.1.15,2013-03-11 22:29:00,
2013-03-11 18:30:00,73.3,63.7,29.92,SE,144,7.0,7.0,72,0.00,,,0.00,Wunderground v.1.15,2013-03-11 22:30:00,
2013-03-11 18:32:00,73.2,63.6,29.92,ESE,123,8.0,10.0,72,0.00,,,0.00,Wunderground v.1.15,2013-03-11 22:32:00,
2013-03-11 18:33:00,73.2,63.6,29.92,SSE,150,0.0,10.0,72,0.00,,,0.00,Wunderground v.1.15,2013-03-11 22:33:00,
2013-03-11 18:34:00,73.1,63.5,29.92,SE,146,3.0,10.0,72,0.00,,,0.00,Wunderground v.1.15,2013-03-11 22:34:00,
2013-03-11 18:35:00,73.1,63.5,29.92,SSE,157,7.0,10.0,72,0.00,,,0.00,Wunderground v.1.15,2013-03-11 22:35:00,
2013-03-11 18:37:00,73.1,63.5,29.92,SE,134,5.0,10.0,72,0.00,,,0.00,Wunderground v.1.15,2013-03-11 22:37:00,
2013-03-11 18:38:00,73.1,63.5,29.92,SE,133,7.0,10.0,72,0.00,,,0.00,Wunderground v.1.15,2013-03-11 22:38:00,
2013-03-11 18:40:00,73.1,63.5,29.92,SE,131,7.0,7.0,72,0.00,,,0.00,Wunderground v.1.15,2013-03-11 22:40:00,
2013-03-11 18:43:00,73.0,63.4,29.92,ESE,107,6.0,8.0,72,0.00,,,0.00,Wunderground v.1.15,2013-03-11 22:43:00,
2013-03-11 18:44:00,73.0,63.4,29.92,ESE,117,8.0,9.0,72,0.00,,,0.00,Wunderground v.1.15,2013-03-11 22:44:00,
2013-03-11 18:45:00,73.0,63.4,29.92,SSE,150,10.0,13.0,72,0.00,,,0.00,Wunderground v.1.15,2013-03-11 22:45:00,
2013-03-11 18:46:00,73.0,63.4,29.92,SE,127,9.0,13.0,72,0.00,,,0.00,Wunderground v.1.15,2013-03-11 22:46:00,
2013-03-11 18:48:00,72.9,63.3,29.92,SE,124,10.0,13.0,72,0.00,,,0.00,Wunderground v.1.15,2013-03-11 22:48:00,
2013-03-11 18:49:00,72.9,63.3,29.93,SE,129,0.0,7.0,72,0.00,,,0.00,Wunderground v.1.15,2013-03-11 22:49:00,
2013-03-11 18:50:00,72.9,63.7,29.92,SE,144,7.0,7.0,73,0.00,,,0.00,Wunderground v.1.15,2013-03-11 22:50:00,
2013-03-11 18:51:00,72.9,63.7,29.92,SE,136,8.0,12.0,73,0.00,,,0.00,Wunderground v.1.15,2013-03-11 22:51:00,
2013-03-11 18:54:00,72.8,63.6,29.92,SE,124,8.0,12.0,73,0.00,,,0.00,Wunderground v.1.15,2013-03-11 22:54:00,
2013-03-11 18:55:00,72.7,63.5,29.92,SE,143,7.0,12.0,73,0.00,,,0.00,Wunderground v.1.15,2013-03-11 22:55:00,
2013-03-11 18:56:00,72.7,63.5,29.92,SE,146,4.0,12.0,73,0.00,,,0.00,Wunderground v.1.15,2013-03-11 22:56:00,
2013-03-11 18:59:00,72.6,63.4,29.92,SE,132,1.0,12.0,73,0.00,,,0.00,Wunderground v.1.15,2013-03-11 22:59:00,
2013-03-11 19:00:00,72.6,63.8,29.93,SE,138,9.0,11.0,74,0.00,,,0.00,Wunderground v.1.15,2013-03-11 23:00:00,
2013-03-11 19:01:00,72.6,63.8,29.93,SE,128,7.0,11.0,74,0.00,,,0.00,Wunderground v.1.15,2013-03-11 23:01:00,
2013-03-11 19:02:00,72.6,63.8,29.93,SE,141,0.0,11.0,74,0.00,,,0.00,Wunderground v.1.15,2013-03-11 23:02:00,
2013-03-11 19:05:00,72.4,63.6,29.93,South,173,6.0,11.0,74,0.00,,,0.00,Wunderground v.1.15,2013-03-11 23:05:00,
2013-03-11 19:06:00,72.4,63.6,29.93,SSE,150,5.0,11.0,74,0.00,,,0.00,Wunderground v.1.15,2013-03-11 23:06:00,
2013-03-11 19:07:00,72.4,63.6,29.93,SE,136,4.0,11.0,74,0.00,,,0.00,Wunderground v.1.15,2013-03-11 23:07:00,
2013-03-11 19:08:00,72.4,63.6,29.93,SSE,161,9.0,11.0,74,0.00,,,0.00,Wunderground v.1.15,2013-03-11 23:08:00,
2013-03-11 19:11:00,72.3,63.5,29.93,SE,128,6.0,8.0,74,0.00,,,0.00,Wunderground v.1.15,2013-03-11 23:11:00,
2013-03-11 19:12:00,72.2,63.4,29.93,SE,138,6.0,9.0,74,0.00,,,0.00,Wunderground v.1.15,2013-03-11 23:12:00,
2013-03-11 19:15:00,72.1,63.7,29.94,SE,128,8.0,9.0,75,0.00,,,0.00,Wunderground v.1.15,2013-03-11 23:15:00,
2013-03-11 19:16:00,72.1,63.7,29.94,SE,134,7.0,9.0,75,0.00,,,0.00,Wunderground v.1.15,2013-03-11 23:16:00,
2013-03-11 19:17:00,72.1,63.7,29.93,SE,131,8.0,9.0,75,0.00,,,0.00,Wunderground v.1.15,2013-03-11 23:17:00,
2013-03-11 19:21:00,72.0,63.6,29.93,SE,141,5.0,10.0,75,0.00,,,0.00,Wunderground v.1.15,2013-03-11 23:21:00,
2013-03-11 19:22:00,72.0,63.6,29.94,SSE,147,8.0,10.0,75,0.00,,,0.00,Wunderground v.1.15,2013-03-11 23:22:00,
2013-03-11 19:23:00,71.9,63.5,29.94,SE,132,7.0,10.0,75,0.00,,,0.00,Wunderground v.1.15,2013-03-11 23:23:00,
2013-03-11 19:26:00,71.9,63.5,29.93,SSE,159,6.0,10.0,75,0.00,,,0.00,Wunderground v.1.15,2013-03-11 23:26:00,
2013-03-11 19:28:00,71.9,63.5,29.94,SE,134,6.0,10.0,75,0.00,,,0.00,Wunderground v.1.15,2013-03-11 23:28:00,
2013-03-11 19:32:00,71.9,63.9,29.94,SE,133,4.0,8.0,76,0.00,,,0.00,Wunderground v.1.15,2013-03-11 23:32:00,
2013-03-11 19:33:00,71.9,63.9,29.94,ESE,119,5.0,8.0,76,0.00,,,0.00,Wunderground v.1.15,2013-03-11 23:33:00,
2013-03-11 19:34:00,71.8,63.8,29.94,SE,136,6.0,8.0,76,0.00,,,0.00,Wunderground v.1.15,2013-03-11 23:34:00,
2013-03-11 19:38:00,71.7,63.7,29.93,SE,142,4.0,8.0,76,0.00,,,0.00,Wunderground v.1.15,2013-03-11 23:38:00,
2013-03-11 19:39:00,71.7,63.7,29.93,SSE,158,1.0,9.0,76,0.00,,,0.00,Wunderground v.1.15,2013-03-11 23:39:00,
2013-03-11 19:43:00,71.6,63.6,29.93,ESE,115,0.0,10.0,76,0.00,,,0.00,Wunderground v.1.15,2013-03-11 23:43:00,
2013-03-11 19:44:00,71.6,63.6,29.93,ESE,116,5.0,10.0,76,0.00,,,0.00,Wunderground v.1.15,2013-03-11 23:44:00,
2013-03-11 19:45:00,71.6,63.6,29.93,ESE,109,6.0,10.0,76,0.00,,,0.00,Wunderground v.1.15,2013-03-11 23:45:00,
2013-03-11 19:49:00,71.5,63.5,29.93,SSE,159,0.0,10.0,76,0.00,,,0.00,Wunderground v.1.15,2013-03-11 23:49:00,
2013-03-11 19:50:00,71.5,63.5,29.93,SE,132,0.0,5.0,76,0.00,,,0.00,Wunderground v.1.15,2013-03-11 23:50:00,
2013-03-11 19:51:00,71.5,63.5,29.93,SE,132,2.0,5.0,76,0.00,,,0.00,Wunderground v.1.15,2013-03-11 23:51:00,
2013-03-11 19:54:00,71.4,63.4,29.93,SSE,152,0.0,6.0,76,0.00,,,0.00,Wunderground v.1.15,2013-03-11 23:54:00,
2013-03-11 19:56:00,71.4,63.8,29.93,SE,142,4.0,6.0,77,0.00,,,0.00,Wunderground v.1.15,2013-03-11 23:56:00,
2013-03-11 19:58:00,71.4,63.8,29.94,SE,140,0.0,6.0,77,0.00,,,0.00,Wunderground v.1.15,2013-03-11 23:58:00,
2013-03-11 19:59:00,71.3,63.7,29.94,SE,140,0.0,6.0,77,0.00,,,0.00,Wunderground v.1.15,2013-03-11 23:59:00,
2013-03-11 20:02:00,71.3,63.7,29.94,SSE,155,0.0,6.0,77,0.00,,,0.00,Wunderground v.1.15,2013-03-12 00:02:00,
2013-03-11 20:03:00,71.3,63.7,29.94,SSE,153,1.0,6.0,77,0.00,,,0.00,Wunderground v.1.15,2013-03-12 00:03:00,
2013-03-11 20:04:00,71.2,63.6,29.94,SSE,149,0.0,6.0,77,0.00,,,0.00,Wunderground v.1.15,2013-03-12 00:04:00,
2013-03-11 20:05:00,71.2,63.6,29.94,SSE,149,0.0,6.0,77,0.00,,,0.00,Wunderground v.1.15,2013-03-12 00:05:00,
2013-03-11 20:07:00,71.2,64.0,29.94,SE,144,5.0,8.0,78,0.00,,,0.00,Wunderground v.1.15,2013-03-12 00:07:00,
2013-03-11 20:08:00,71.1,63.5,29.94,SE,136,4.0,8.0,77,0.00,,,0.00,Wunderground v.1.15,2013-03-12 00:08:00,
2013-03-11 20:10:00,71.1,63.5,29.94,SE,135,2.0,3.0,77,0.00,,,0.00,Wunderground v.1.15,2013-03-12 00:10:00,
2013-03-11 20:12:00,71.1,63.5,29.94,SE,135,1.0,5.0,77,0.00,,,0.00,Wunderground v.1.15,2013-03-12 00:12:00,
2013-03-11 20:13:00,71.1,63.5,29.94,SSE,147,1.0,5.0,77,0.00,,,0.00,Wunderground v.1.15,2013-03-12 00:13:00,
2013-03-11 20:15:00,71.1,63.9,29.94,SE,146,0.0,5.0,78,0.00,,,0.00,Wunderground v.1.15,2013-03-12 00:15:00,
2013-03-11 20:16:00,71.1,63.9,29.94,SE,146,0.0,5.0,78,0.00,,,0.00,Wunderground v.1.15,2013-03-12 00:16:00,
2013-03-11 20:17:00,71.1,63.5,29.95,SSE,147,4.0,5.0,77,0.00,,,0.00,Wunderground v.1.15,2013-03-12 00:17:00,
2013-03-11 20:19:00,71.0,63.8,29.95,SE,146,1.0,5.0,78,0.00,,,0.00,Wunderground v.1.15,2013-03-12 00:19:00,
2013-03-11 20:21:00,71.0,63.8,29.95,SE,140,0.0,2.0,78,0.00,,,0.00,Wunderground v.1.15,2013-03-12 00:21:00,
2013-03-11 20:22:00,71.0,63.8,29.95,SE,140,0.0,2.0,78,0.00,,,0.00,Wunderground v.1.15,2013-03-12 00:22:00,
2013-03-11 20:24:00,71.0,63.8,29.95,SE,140,0.0,2.0,78,0.00,,,0.00,Wunderground v.1.15,2013-03-12 00:24:00,
2013-03-11 20:26:00,70.9,63.7,29.95,SE,140,0.0,2.0,78,0.00,,,0.00,Wunderground v.1.15,2013-03-12 00:26:00,
2013-03-11 20:27:00,70.9,63.7,29.95,SE,140,0.0,2.0,78,0.00,,,0.00,Wunderground v.1.15,2013-03-12 00:27:00,
2013-03-11 20:28:00,70.9,63.7,29.95,SE,140,1.0,2.0,78,0.00,,,0.00,Wunderground v.1.15,2013-03-12 00:28:00,
2013-03-11 20:29:00,70.9,63.7,29.95,SE,140,0.0,0.0,78,0.00,,,0.00,Wunderground v.1.15,2013-03-12 00:29:00,
2013-03-11 20:32:00,70.9,63.7,29.95,SE,140,0.0,4.0,78,0.00,,,0.00,Wunderground v.1.15,2013-03-12 00:32:00,
2013-03-11 20:34:00,70.9,63.7,29.95,SE,140,0.0,4.0,78,0.00,,,0.00,Wunderground v.1.15,2013-03-12 00:34:00,
2013-03-11 20:35:00,70.9,63.7,29.95,SE,140,0.0,4.0,78,0.00,,,0.00,Wunderground v.1.15,2013-03-12 00:35:00,
2013-03-11 20:38:00,70.9,63.7,29.96,SE,140,0.0,4.0,78,0.00,,,0.00,Wunderground v.1.15,2013-03-12 00:38:00,
2013-03-11 20:39:00,70.9,63.7,29.95,SE,145,4.0,4.0,78,0.00,,,0.00,Wunderground v.1.15,2013-03-12 00:39:00,
2013-03-11 20:41:00,70.9,63.7,29.96,SE,144,0.0,1.0,78,0.00,,,0.00,Wunderground v.1.15,2013-03-12 00:41:00,
2013-03-11 20:43:00,70.9,63.7,29.96,SE,144,0.0,1.0,78,0.00,,,0.00,Wunderground v.1.15,2013-03-12 00:43:00,
2013-03-11 20:44:00,70.9,63.7,29.96,SE,130,5.0,5.0,78,0.00,,,0.00,Wunderground v.1.15,2013-03-12 00:44:00,
2013-03-11 20:46:00,70.9,63.7,29.96,SE,126,0.0,5.0,78,0.00,,,0.00,Wunderground v.1.15,2013-03-12 00:46:00,
2013-03-11 20:48:00,70.9,63.7,29.96,SE,126,0.0,5.0,78,0.00,,,0.00,Wunderground v.1.15,2013-03-12 00:48:00,
2013-03-11 20:49:00,70.9,63.7,29.96,SE,126,0.0,5.0,78,0.00,,,0.00,Wunderground v.1.15,2013-03-12 00:49:00,
2013-03-11 20:52:00,70.8,63.6,29.96,SE,126,0.0,2.0,78,0.00,,,0.00,Wunderground v.1.15,2013-03-12 00:52:00,
2013-03-11 20:54:00,70.8,63.6,29.96,SE,126,0.0,2.0,78,0.00,,,0.00,Wunderground v.1.15,2013-03-12 00:54:00,
2013-03-11 20:58:00,70.6,63.8,29.96,SE,126,0.0,2.0,79,0.00,,,0.00,Wunderground v.1.15,2013-03-12 00:58:00,
2013-03-11 20:59:00,70.6,63.8,29.96,SE,126,0.0,2.0,79,0.00,,,0.00,Wunderground v.1.15,2013-03-12 00:59:00,
2013-03-11 21:00:00,70.6,63.8,29.96,SE,126,0.0,0.0,79,0.00,,,0.00,Wunderground v.1.15,2013-03-12 01:00:00,
2013-03-11 21:03:00,70.4,63.6,29.96,SE,126,0.0,0.0,79,0.00,,,0.00,Wunderground v.1.15,2013-03-12 01:03:00,
2013-03-11 21:04:00,70.4,63.6,29.96,SE,126,0.0,0.0,79,0.00,,,0.00,Wunderground v.1.15,2013-03-12 01:04:00,
2013-03-11 21:05:00,70.4,63.6,29.96,SE,126,0.0,0.0,79,0.00,,,0.00,Wunderground v.1.15,2013-03-12 01:05:00,
2013-03-11 21:06:00,70.2,63.7,29.96,SE,126,0.0,0.0,80,0.00,,,0.00,Wunderground v.1.15,2013-03-12 01:06:00,
2013-03-11 21:08:00,70.1,63.6,29.96,SE,126,0.0,0.0,80,0.00,,,0.00,Wunderground v.1.15,2013-03-12 01:08:00,
2013-03-11 21:09:00,70.1,63.6,29.96,SE,126,0.0,0.0,80,0.00,,,0.00,Wunderground v.1.15,2013-03-12 01:09:00,
2013-03-11 21:10:00,70.0,63.5,29.96,SE,126,0.0,0.0,80,0.00,,,0.00,Wunderground v.1.15,2013-03-12 01:10:00,
2013-03-11 21:11:00,69.9,63.4,29.97,SE,126,0.0,0.0,80,0.00,,,0.00,Wunderground v.1.15,2013-03-12 01:11:00,
2013-03-11 21:13:00,69.7,63.3,29.97,SE,126,0.0,0.0,80,0.00,,,0.00,Wunderground v.1.15,2013-03-12 01:13:00,
2013-03-11 21:15:00,69.5,63.1,29.97,SE,126,0.0,0.0,80,0.00,,,0.00,Wunderground v.1.15,2013-03-12 01:15:00,
2013-03-11 21:17:00,69.4,63.0,29.97,SE,126,0.0,0.0,80,0.00,,,0.00,Wunderground v.1.15,2013-03-12 01:17:00,
2013-03-11 21:18:00,69.3,62.9,29.97,SE,126,0.0,0.0,80,0.00,,,0.00,Wunderground v.1.15,2013-03-12 01:18:00,
2013-03-11 21:20:00,69.1,62.7,29.97,SE,126,0.0,0.0,80,0.00,,,0.00,Wunderground v.1.15,2013-03-12 01:20:00,
2013-03-11 21:21:00,69.1,62.7,29.97,SE,126,0.0,0.0,80,0.00,,,0.00,Wunderground v.1.15,2013-03-12 01:21:00,
2013-03-11 21:22:00,68.9,62.8,29.97,SE,126,0.0,0.0,81,0.00,,,0.00,Wunderground v.1.15,2013-03-12 01:22:00,
2013-03-11 21:24:00,68.7,62.6,29.97,SE,126,0.0,0.0,81,0.00,,,0.00,Wunderground v.1.15,2013-03-12 01:24:00,
2013-03-11 21:26:00,68.6,62.5,29.97,SE,126,0.0,0.0,81,0.00,,,0.00,Wunderground v.1.15,2013-03-12 01:26:00,
2013-03-11 21:28:00,68.5,62.8,29.97,SE,126,0.0,0.0,82,0.00,,,0.00,Wunderground v.1.15,2013-03-12 01:28:00,
2013-03-11 21:31:00,68.2,62.8,29.97,SE,126,0.0,0.0,83,0.00,,,0.00,Wunderground v.1.15,2013-03-12 01:31:00,
2013-03-11 21:32:00,68.1,62.7,29.97,SE,126,0.0,0.0,83,0.00,,,0.00,Wunderground v.1.15,2013-03-12 01:32:00,
2013-03-11 21:33:00,68.0,62.6,29.97,SE,126,0.0,0.0,83,0.00,,,0.00,Wunderground v.1.15,2013-03-12 01:33:00,
2013-03-11 21:36:00,67.8,62.4,29.97,SE,126,0.0,0.0,83,0.00,,,0.00,Wunderground v.1.15,2013-03-12 01:36:00,
2013-03-11 21:37:00,67.7,62.7,29.97,SE,126,0.0,0.0,84,0.00,,,0.00,Wunderground v.1.15,2013-03-12 01:37:00,
2013-03-11 21:38:00,67.7,62.7,29.97,SE,126,0.0,0.0,84,0.00,,,0.00,Wunderground v.1.15,2013-03-12 01:38:00,
2013-03-11 21:40:00,67.6,62.6,29.97,SE,126,0.0,0.0,84,0.00,,,0.00,Wunderground v.1.15,2013-03-12 01:40:00,
2013-03-11 21:41:00,67.5,62.5,29.97,SE,126,0.0,0.0,84,0.00,,,0.00,Wunderground v.1.15,2013-03-12 01:41:00,
2013-03-11 21:42:00,67.4,62.4,29.96,SE,126,0.0,0.0,84,0.00,,,0.00,Wunderground v.1.15,2013-03-12 01:42:00,
2013-03-11 21:43:00,67.4,62.4,29.97,SE,126,0.0,0.0,84,0.00,,,0.00,Wunderground v.1.15,2013-03-12 01:43:00,
2013-03-11 21:45:00,67.3,62.3,29.97,SE,126,0.0,0.0,84,0.00,,,0.00,Wunderground v.1.15,2013-03-12 01:45:00,
2013-03-11 21:47:00,67.3,62.6,29.97,SE,126,0.0,0.0,85,0.00,,,0.00,Wunderground v.1.15,2013-03-12 01:47:00,
2013-03-11 21:49:00,67.2,62.5,29.97,SE,126,0.0,0.0,85,0.00,,,0.00,Wunderground v.1.15,2013-03-12 01:49:00,
2013-03-11 21:50:00,67.1,62.4,29.97,SE,126,0.0,0.0,85,0.00,,,0.00,Wunderground v.1.15,2013-03-12 01:50:00,
2013-03-11 21:52:00,66.6,61.6,29.97,SE,126,0.0,0.0,84,0.00,,,0.00,Wunderground v.1.15,2013-03-12 01:52:00,
2013-03-11 21:55:00,66.2,61.6,29.97,SE,126,0.0,0.0,85,0.00,,,0.00,Wunderground v.1.15,2013-03-12 01:55:00,
2013-03-11 21:57:00,66.0,61.4,29.97,SE,126,0.0,0.0,85,0.00,,,0.00,Wunderground v.1.15,2013-03-12 01:57:00,
2013-03-11 21:58:00,65.8,61.5,29.97,SE,126,0.0,0.0,86,0.00,,,0.00,Wunderground v.1.15,2013-03-12 01:58:00,
2013-03-11 22:00:00,65.6,61.3,29.98,SE,126,0.0,0.0,86,0.00,,,0.00,Wunderground v.1.15,2013-03-12 02:00:00,
2013-03-11 22:01:00,65.5,61.2,29.98,SE,126,0.0,0.0,86,0.00,,,0.00,Wunderground v.1.15,2013-03-12 02:01:00,
2013-03-11 22:02:00,65.4,61.4,29.98,SE,126,0.0,0.0,87,0.00,,,0.00,Wunderground v.1.15,2013-03-12 02:02:00,
2013-03-11 22:03:00,65.3,61.3,29.98,SE,126,0.0,0.0,87,0.00,,,0.00,Wunderground v.1.15,2013-03-12 02:03:00,
2013-03-11 22:05:00,65.2,61.6,29.98,SE,126,0.0,0.0,88,0.00,,,0.00,Wunderground v.1.15,2013-03-12 02:05:00,
2013-03-11 22:07:00,65.2,61.6,29.98,SE,126,0.0,0.0,88,0.00,,,0.00,Wunderground v.1.15,2013-03-12 02:07:00,
2013-03-11 22:08:00,65.2,61.6,29.98,SE,126,0.0,0.0,88,0.00,,,0.00,Wunderground v.1.15,2013-03-12 02:08:00,
2013-03-11 22:10:00,65.2,61.6,29.97,SE,126,0.0,0.0,88,0.00,,,0.00,Wunderground v.1.15,2013-03-12 02:10:00,
2013-03-11 22:13:00,65.0,61.4,29.97,SE,126,0.0,0.0,88,0.00,,,0.00,Wunderground v.1.15,2013-03-12 02:13:00,
2013-03-11 22:14:00,65.0,61.4,29.97,SE,126,0.0,0.0,88,0.00,,,0.00,Wunderground v.1.15,2013-03-12 02:14:00,
2013-03-11 22:16:00,65.1,61.8,29.98,SE,126,0.0,0.0,89,0.00,,,0.00,Wunderground v.1.15,2013-03-12 02:16:00,
2013-03-11 22:18:00,65.2,61.9,29.98,SE,126,0.0,0.0,89,0.00,,,0.00,Wunderground v.1.15,2013-03-12 02:18:00,
2013-03-11 22:20:00,65.2,61.9,29.98,SE,126,0.0,0.0,89,0.00,,,0.00,Wunderground v.1.15,2013-03-12 02:20:00,
2013-03-11 22:22:00,65.2,61.9,29.98,SE,126,0.0,0.0,89,0.00,,,0.00,Wunderground v.1.15,2013-03-12 02:22:00,
2013-03-11 22:23:00,65.2,61.9,29.98,SE,126,0.0,0.0,89,0.00,,,0.00,Wunderground v.1.15,2013-03-12 02:23:00,
2013-03-11 22:25:00,65.2,61.9,29.98,SE,126,0.0,0.0,89,0.00,,,0.00,Wunderground v.1.15,2013-03-12 02:25:00,
2013-03-11 22:26:00,65.3,62.3,29.98,SE,126,0.0,0.0,90,0.00,,,0.00,Wunderground v.1.15,2013-03-12 02:26:00,
2013-03-11 22:27:00,65.3,62.3,29.98,SE,126,0.0,0.0,90,0.00,,,0.00,Wunderground v.1.15,2013-03-12 02:27:00,
2013-03-11 22:29:00,65.3,62.3,29.98,SE,126,0.0,0.0,90,0.00,,,0.00,Wunderground v.1.15,2013-03-12 02:29:00,
2013-03-11 22:30:00,65.4,62.4,29.98,SE,126,0.0,0.0,90,0.00,,,0.00,Wunderground v.1.15,2013-03-12 02:30:00,
2013-03-11 22:31:00,65.4,62.4,29.98,SE,126,0.0,0.0,90,0.00,,,0.00,Wunderground v.1.15,2013-03-12 02:31:00,
2013-03-11 22:33:00,65.3,62.3,29.98,SE,126,0.0,0.0,90,0.00,,,0.00,Wunderground v.1.15,2013-03-12 02:33:00,
2013-03-11 22:34:00,65.3,62.3,29.98,SE,126,0.0,0.0,90,0.00,,,0.00,Wunderground v.1.15,2013-03-12 02:34:00,
2013-03-11 22:35:00,65.3,62.3,29.98,SE,126,0.0,0.0,90,0.00,,,0.00,Wunderground v.1.15,2013-03-12 02:35:00,
2013-03-11 22:37:00,65.3,62.3,29.98,SE,126,0.0,0.0,90,0.00,,,0.00,Wunderground v.1.15,2013-03-12 02:37:00,
2013-03-11 22:38:00,65.1,62.1,29.98,SE,126,0.0,0.0,90,0.00,,,0.00,Wunderground v.1.15,2013-03-12 02:38:00,
2013-03-11 22:39:00,65.1,62.1,29.98,SE,126,0.0,0.0,90,0.00,,,0.00,Wunderground v.1.15,2013-03-12 02:39:00,
2013-03-11 22:40:00,65.1,62.1,29.98,SE,126,0.0,0.0,90,0.00,,,0.00,Wunderground v.1.15,2013-03-12 02:40:00,
2013-03-11 22:42:00,65.0,62.0,29.98,SE,126,0.0,0.0,90,0.00,,,0.00,Wunderground v.1.15,2013-03-12 02:42:00,
2013-03-11 22:44:00,64.9,61.9,29.98,SE,126,0.0,0.0,90,0.00,,,0.00,Wunderground v.1.15,2013-03-12 02:44:00,
2013-03-11 22:45:00,64.9,61.9,29.98,SE,126,0.0,0.0,90,0.00,,,0.00,Wunderground v.1.15,2013-03-12 02:45:00,
2013-03-11 22:48:00,64.9,61.9,29.98,SE,126,0.0,0.0,90,0.00,,,0.00,Wunderground v.1.15,2013-03-12 02:48:00,
2013-03-11 22:49:00,64.9,61.9,29.98,SE,126,0.0,0.0,90,0.00,,,0.00,Wunderground v.1.15,2013-03-12 02:49:00,
2013-03-11 22:50:00,64.9,61.9,29.98,SE,126,0.0,0.0,90,0.00,,,0.00,Wunderground v.1.15,2013-03-12 02:50:00,
2013-03-11 22:53:00,64.8,61.8,29.98,SE,126,0.0,0.0,90,0.00,,,0.00,Wunderground v.1.15,2013-03-12 02:53:00,
2013-03-11 22:55:00,64.8,61.8,29.98,SE,126,0.0,0.0,90,0.00,,,0.00,Wunderground v.1.15,2013-03-12 02:55:00,
2013-03-11 22:56:00,64.7,61.7,29.98,SE,126,0.0,0.0,90,0.00,,,0.00,Wunderground v.1.15,2013-03-12 02:56:00,
2013-03-11 22:58:00,64.6,61.6,29.98,SE,126,0.0,0.0,90,0.00,,,0.00,Wunderground v.1.15,2013-03-12 02:58:00,
2013-03-11 23:00:00,64.6,61.6,29.98,SE,126,0.0,0.0,90,0.00,,,0.00,Wunderground v.1.15,2013-03-12 03:00:00,
2013-03-11 23:01:00,64.6,61.6,29.98,SE,126,0.0,0.0,90,0.00,,,0.00,Wunderground v.1.15,2013-03-12 03:01:00,
2013-03-11 23:03:00,64.5,61.5,29.98,SE,126,0.0,0.0,90,0.00,,,0.00,Wunderground v.1.15,2013-03-12 03:03:00,
2013-03-11 23:05:00,64.5,61.8,29.98,SE,126,0.0,0.0,91,0.00,,,0.00,Wunderground v.1.15,2013-03-12 03:05:00,
2013-03-11 23:06:00,64.5,61.8,29.98,SE,126,0.0,0.0,91,0.00,,,0.00,Wunderground v.1.15,2013-03-12 03:06:00,
2013-03-11 23:09:00,64.5,61.8,29.98,SE,126,0.0,0.0,91,0.00,,,0.00,Wunderground v.1.15,2013-03-12 03:09:00,
2013-03-11 23:10:00,64.4,61.7,29.98,SE,126,0.0,0.0,91,0.00,,,0.00,Wunderground v.1.15,2013-03-12 03:10:00,
2013-03-11 23:11:00,64.5,61.8,29.98,SE,126,0.0,0.0,91,0.00,,,0.00,Wunderground v.1.15,2013-03-12 03:11:00,
2013-03-11 23:12:00,64.5,61.8,29.98,SE,126,0.0,0.0,91,0.00,,,0.00,Wunderground v.1.15,2013-03-12 03:12:00,
2013-03-11 23:14:00,64.4,61.7,29.98,SE,126,0.0,0.0,91,0.00,,,0.00,Wunderground v.1.15,2013-03-12 03:14:00,
2013-03-11 23:15:00,64.4,61.7,29.98,SE,126,0.0,0.0,91,0.00,,,0.00,Wunderground v.1.15,2013-03-12 03:15:00,
2013-03-11 23:17:00,64.4,61.7,29.98,SE,126,0.0,0.0,91,0.00,,,0.00,Wunderground v.1.15,2013-03-12 03:17:00,
2013-03-11 23:18:00,64.4,61.7,29.98,SE,126,0.0,0.0,91,0.00,,,0.00,Wunderground v.1.15,2013-03-12 03:18:00,
2013-03-11 23:19:00,64.4,61.7,29.98,SE,126,0.0,0.0,91,0.00,,,0.00,Wunderground v.1.15,2013-03-12 03:19:00,
2013-03-11 23:20:00,64.5,62.1,29.98,SE,126,0.0,0.0,92,0.00,,,0.00,Wunderground v.1.15,2013-03-12 03:20:00,
2013-03-11 23:22:00,64.5,62.1,29.97,SE,126,0.0,0.0,92,0.00,,,0.00,Wunderground v.1.15,2013-03-12 03:22:00,
2013-03-11 23:24:00,64.5,62.1,29.97,SE,126,0.0,0.0,92,0.00,,,0.00,Wunderground v.1.15,2013-03-12 03:24:00,
2013-03-11 23:25:00,64.5,62.1,29.97,SE,126,0.0,0.0,92,0.00,,,0.00,Wunderground v.1.15,2013-03-12 03:25:00,
2013-03-11 23:28:00,64.4,62.0,29.97,SE,126,0.0,0.0,92,0.00,,,0.00,Wunderground v.1.15,2013-03-12 03:28:00,
2013-03-11 23:29:00,64.4,62.0,29.97,SE,126,0.0,0.0,92,0.00,,,0.00,Wunderground v.1.15,2013-03-12 03:29:00,
2013-03-11 23:30:00,64.4,62.0,29.97,SE,126,0.0,0.0,92,0.00,,,0.00,Wunderground v.1.15,2013-03-12 03:30:00,
2013-03-11 23:33:00,64.3,61.9,29.97,SE,126,0.0,0.0,92,0.00,,,0.00,Wunderground v.1.15,2013-03-12 03:33:00,
2013-03-11 23:34:00,64.3,61.9,29.97,SE,126,0.0,0.0,92,0.00,,,0.00,Wunderground v.1.15,2013-03-12 03:34:00,
2013-03-11 23:35:00,64.3,61.9,29.97,SE,126,0.0,0.0,92,0.00,,,0.00,Wunderground v.1.15,2013-03-12 03:35:00,
2013-03-11 23:38:00,64.3,61.9,29.96,SE,126,0.0,0.0,92,0.00,,,0.00,Wunderground v.1.15,2013-03-12 03:38:00,
2013-03-11 23:39:00,64.3,61.9,29.96,SE,126,0.0,0.0,92,0.00,,,0.00,Wunderground v.1.15,2013-03-12 03:39:00,
2013-03-11 23:41:00,64.3,61.9,29.96,SE,126,0.0,0.0,92,0.00,,,0.00,Wunderground v.1.15,2013-03-12 03:41:00,
2013-03-11 23:44:00,64.3,61.9,29.97,SE,126,0.0,0.0,92,0.00,,,0.00,Wunderground v.1.15,2013-03-12 03:44:00,
2013-03-11 23:46:00,64.3,61.9,29.97,SE,126,0.0,0.0,92,0.00,,,0.00,Wunderground v.1.15,2013-03-12 03:46:00,
2013-03-11 23:49:00,64.2,61.5,29.97,SE,126,0.0,0.0,91,0.00,,,0.00,Wunderground v.1.15,2013-03-12 03:49:00,
2013-03-11 23:51:00,64.1,61.4,29.97,SE,126,0.0,0.0,91,0.00,,,0.00,Wunderground v.1.15,2013-03-12 03:51:00,
2013-03-11 23:54:00,63.9,61.2,29.97,SE,126,0.0,0.0,91,0.00,,,0.00,Wunderground v.1.15,2013-03-12 03:54:00,
2013-03-11 23:55:00,63.8,61.1,29.97,SE,126,0.0,0.0,91,0.00,,,0.00,Wunderground v.1.15,2013-03-12 03:55:00,
2013-03-11 23:56:00,63.9,61.2,29.96,SE,126,0.0,0.0,91,0.00,,,0.00,Wunderground v.1.15,2013-03-12 03:56:00,
2013-03-11 23:59:00,64.0,61.6,29.97,SE,126,0.0,0.0,92,0.00,,,0.00,Wunderground v.1.15,2013-03-12 03:59:00,